<- Previous Day | Today | Next Day ->

All Data for 22 November 2020

 

Time A - D Temp A - D Dew Point A - D Humidity A - D Pressure A - D Wind A - D Wind Dir Gust A - D Rain Rate A - D Rain Total
00:00 11.1 9.2 88 1025.8 7.6 SW 11.4 0.8 0.0
00:01 11.1 9.2 88 1025.7 10.7 NW 11.4 0.8 0.0
00:03 11.1 9.2 88 1025.8 7.6 SW 10.7 0.0 0.0
00:04 11.1 9.2 88 1025.8 6.0 W 10.7 0.0 0.0
00:05 11.1 9.2 88 1025.7 6.0 W 10.7 0.0 0.0
00:06 11.1 9.2 88 1025.8 6.0 W 10.7 0.0 0.0
00:07 11.1 9.2 88 1025.7 6.9 SW 10.7 0.0 0.0
00:08 11.1 9.2 88 1025.8 9.2 SW 10.7 0.0 0.0
00:09 11.1 9.2 88 1025.8 9.2 SW 10.7 0.0 0.0
00:10 11.1 9.2 88 1025.8 9.2 SW 10.7 0.0 0.0
00:11 11.1 9.2 88 1025.8 7.6 SW 10.7 0.0 0.0
00:12 11.1 9.2 88 1025.8 8.3 SW 10.7 0.0 0.0
00:13 11.1 9.2 88 1025.5 9.2 SW 10.7 0.0 0.0
00:14 11.1 9.2 88 1025.8 10.7 SW 10.7 0.0 0.0
00:15 11.1 9.2 88 1025.6 8.3 SW 10.7 0.0 0.0
00:17 11.1 9.2 88 1025.7 6.9 W 10.7 0.0 0.0
00:18 11.1 9.2 88 1025.7 6.9 SSW 10.7 0.0 0.0
00:19 11.1 9.2 88 1025.7 9.2 SW 10.7 0.0 0.1
00:20 11.1 9.2 88 1025.8 10.7 SW 10.7 0.8 0.1
00:21 11.1 9.2 88 1025.8 10.7 SW 10.7 0.8 0.1
00:22 11.1 9.2 88 1025.8 10.7 SW 10.7 0.8 0.1
00:23 11.1 9.2 88 1025.7 7.6 SW 10.7 0.8 0.1
00:24 11.1 9.2 88 1025.8 9.2 SW 10.7 0.8 0.1
00:25 11.1 9.2 88 1025.8 9.2 S 10.7 0.0 0.1
00:26 11.1 9.2 88 1025.7 9.2 SW 10.7 0.0 0.1
00:27 11.2 9.3 88 1025.9 8.3 SW 10.7 0.0 0.1
00:28 11.2 9.3 88 1025.8 9.8 SW 10.7 0.0 0.1
00:29 11.2 9.3 88 1025.9 9.8 W 10.7 0.0 0.1
00:31 11.2 9.5 89 1025.5 9.8 SW 12.1 0.0 0.1
00:32 11.2 9.5 89 1025.8 7.6 SW 12.1 0.0 0.1
00:33 11.1 9.4 89 1025.9 7.6 SW 12.1 0.0 0.1
00:34 11.2 9.5 89 1025.7 6.9 SW 12.1 0.0 0.1
00:35 11.2 9.5 89 1025.4 9.8 SW 12.1 0.0 0.1
00:36 11.2 9.5 89 1025.7 10.7 S 12.1 0.0 0.1
00:37 11.2 9.5 89 1025.6 9.8 SW 12.1 0.0 0.1
00:38 11.2 9.5 89 1025.7 8.3 SW 12.1 0.0 0.1
00:39 11.2 9.5 89 1025.7 8.3 SW 12.1 0.0 0.1
00:40 11.2 9.5 89 1025.6 8.3 W 12.1 0.0 0.1
00:41 11.2 9.5 89 1025.8 5.4 W 10.7 0.0 0.1
00:42 11.1 9.4 89 1025.6 6.0 S 10.7 0.0 0.1
00:43 11.1 9.4 89 1025.6 8.3 SW 10.7 0.0 0.1
00:44 11.2 9.5 89 1025.7 9.8 SW 11.4 0.0 0.1
00:46 11.1 9.4 89 1025.8 8.3 SW 11.4 0.0 0.1
00:47 11.1 9.4 89 1025.7 8.3 SW 11.4 0.0 0.1
00:48 11.2 9.5 89 1025.7 9.8 SW 11.4 0.0 0.1
00:49 11.2 9.5 89 1025.9 10.7 SW 11.4 0.0 0.1
00:50 11.2 9.5 89 1025.7 10.7 SW 11.4 0.0 0.1
00:51 11.2 9.5 89 1025.6 8.3 SW 11.4 0.0 0.1
00:52 11.2 9.5 89 1025.7 6.9 SW 11.4 0.0 0.1
00:53 11.2 9.5 89 1025.7 8.3 SW 11.4 0.0 0.1
00:54 11.2 9.5 89 1025.7 9.8 SW 11.4 0.0 0.1
00:55 11.2 9.5 89 1025.8 9.8 S 10.7 0.0 0.1
00:56 11.2 9.5 89 1025.9 6.9 W 10.7 0.0 0.1
00:57 11.2 9.5 89 1025.8 8.3 SW 10.7 0.0 0.1
00:58 11.2 9.5 89 1025.7 9.8 SW 10.7 0.8 0.1
01:00 11.2 9.5 89 1025.8 6.0 SW 10.7 0.8 0.1
01:01 11.2 9.5 89 1025.8 6.0 SW 9.8 0.8 0.1
01:02 11.2 9.5 89 1025.6 6.0 SW 9.8 0.8 0.1
01:03 11.2 9.5 89 1025.7 6.0 SW 9.8 0.0 0.1
01:04 11.2 9.5 89 1025.7 6.0 SW 9.8 0.0 0.1
01:05 11.2 9.5 89 1025.8 6.0 SW 9.8 0.0 0.1
01:06 11.2 9.5 89 1025.8 6.0 SW 9.8 0.0 0.1
01:07 11.2 9.5 89 1025.8 6.0 SW 9.8 0.0 0.1
01:08 11.2 9.5 89 1025.8 6.0 SW 7.6 0.0 0.1
01:09 11.2 9.5 89 1025.7 6.0 SW 7.6 0.0 0.1
01:10 11.2 9.5 89 1025.8 8.3 SW 8.3 0.8 0.2
01:11 11.2 9.5 89 1025.9 6.9 SW 8.3 0.8 0.2
01:12 11.2 9.5 89 1025.7 6.9 SW 8.3 0.8 0.2
01:14 11.2 9.5 89 1025.7 7.6 SW 9.2 0.8 0.2
01:15 11.2 9.5 89 1025.6 7.6 SW 9.2 0.0 0.2
01:16 11.2 9.5 89 1025.8 7.6 SW 9.2 0.0 0.2
01:17 11.2 9.5 89 1025.6 7.6 NW 9.2 0.0 0.2
01:18 11.2 9.5 89 1025.6 6.0 SW 9.2 0.0 0.2
01:19 11.2 9.5 89 1025.8 6.0 SW 9.2 0.0 0.2
01:20 11.2 9.5 89 1025.7 6.9 SW 9.2 0.8 0.3
01:21 11.2 9.5 89 1025.7 7.6 W 9.2 0.8 0.3
01:22 11.2 9.5 89 1025.7 7.6 SW 9.2 0.8 0.3
01:23 11.2 9.5 89 1025.6 8.3 SW 9.2 0.8 0.3
01:24 11.2 9.5 89 1025.7 7.6 W 8.3 0.8 0.3
01:25 11.2 9.5 89 1025.4 7.6 SW 8.3 0.0 0.3
01:26 11.2 9.5 89 1025.8 7.6 SW 8.3 0.0 0.3
01:28 11.2 9.5 89 1025.7 6.0 SW 8.3 0.0 0.3
01:29 11.2 9.5 89 1025.5 6.0 W 8.3 0.0 0.3
01:30 11.2 9.5 89 1025.6 6.9 SW 8.3 0.0 0.3
01:31 11.2 9.5 89 1025.6 9.8 SW 9.8 0.0 0.3
01:32 11.2 9.5 89 1025.6 9.2 SSW 9.8 0.8 0.3
01:33 11.2 9.5 89 1025.5 6.9 SW 9.8 0.8 0.3
01:34 11.2 9.5 89 1025.5 6.9 SW 9.8 0.8 0.3
01:35 11.2 9.5 89 1025.6 6.9 SW 9.8 0.8 0.3
01:36 11.2 9.5 89 1025.6 7.6 SW 9.8 1.5 0.4
01:37 11.3 9.6 89 1025.6 8.3 W 9.8 0.8 0.4
01:38 11.3 9.6 89 1025.4 9.2 W 9.8 0.8 0.4
01:39 11.3 9.6 89 1025.6 9.2 SW 9.8 0.8 0.4
01:40 11.3 9.6 89 1025.5 6.9 SW 9.8 1.5 0.4
01:42 11.3 9.6 89 1025.6 10.7 SW 10.7 0.8 0.4
01:43 11.3 9.6 89 1025.6 10.7 NW 10.7 0.8 0.4
01:44 11.3 9.6 89 1025.5 7.6 SW 10.7 1.5 0.5
01:45 11.2 9.5 89 1025.7 9.8 SW 10.7 0.8 0.5
01:46 11.2 9.5 89 1025.5 8.3 SW 10.7 0.8 0.5
01:47 11.2 9.5 89 1025.7 7.6 W 10.7 0.8 0.5
01:48 11.2 9.5 89 1025.4 9.2 SW 10.7 0.8 0.5
01:49 11.2 9.5 89 1025.4 5.4 SW 10.7 0.0 0.5
01:50 11.2 9.5 89 1025.5 5.4 W 10.7 0.0 0.5
01:51 11.2 9.5 89 1025.8 7.6 W 10.7 0.0 0.5
01:52 11.2 9.5 89 1025.7 5.4 W 10.7 0.0 0.5
01:53 11.2 9.5 89 1025.7 6.9 W 10.7 0.8 0.6
01:54 11.2 9.5 89 1025.6 5.4 NW 9.8 0.8 0.6
01:55 11.2 9.5 89 1025.7 6.9 SW 9.8 1.5 0.6
01:57 11.2 9.5 89 1025.7 6.9 W 9.2 3.0 0.8
01:58 11.2 9.5 89 1026.0 5.4 W 7.6 3.0 0.9
01:59 11.2 9.5 89 1025.7 6.0 W 7.6 3.8 0.9
02:00 11.1 9.4 89 1025.7 4.5 SW 7.6 3.0 0.9
02:01 11.1 9.4 89 1025.9 3.8 NW 7.6 2.3 0.9
02:02 11.1 9.4 89 1025.8 3.8 W 7.6 2.3 0.9
02:03 11.1 9.4 89 1025.9 5.4 SW 7.6 1.5 1.0
02:04 11.1 9.4 89 1025.8 4.5 W 7.6 1.5 1.0
02:05 11.1 9.4 89 1025.8 3.1 W 7.6 1.5 1.0
02:06 11.1 9.4 89 1025.8 3.8 W 6.9 0.8 1.0
02:07 11.0 9.3 89 1025.7 4.5 SW 6.9 1.5 1.1
02:08 11.0 9.3 89 1025.9 3.1 W 6.0 1.5 1.1
02:09 11.0 9.3 89 1025.8 3.1 W 6.0 1.5 1.1
02:11 11.0 9.3 89 1025.7 3.8 W 5.4 1.5 1.1
02:12 11.0 9.3 89 1025.7 3.8 W 5.4 0.8 1.1
02:13 11.0 9.3 89 1025.8 4.5 W 4.5 0.8 1.1
02:14 11.0 9.3 89 1025.9 2.2 W 4.5 0.0 1.1
02:15 11.0 9.3 89 1025.9 3.8 W 4.5 0.0 1.1
02:16 10.9 9.2 89 1025.8 3.1 WNW 5.4 0.0 1.2
02:17 10.9 9.2 89 1025.8 3.1 WNW 5.4 0.8 1.2
02:18 10.9 9.2 89 1025.9 3.8 W 5.4 0.8 1.2
02:19 10.9 9.2 89 1025.8 3.1 W 5.4 0.8 1.2
02:20 10.9 9.2 89 1025.6 3.1 SW 5.4 0.8 1.2
02:21 10.9 9.2 89 1025.8 2.2 W 5.4 0.8 1.2
02:22 10.9 9.2 89 1025.9 2.2 NW 5.4 0.0 1.2
02:23 10.9 9.2 89 1025.9 2.2 NW 5.4 0.0 1.2
02:25 10.9 9.2 89 1025.8 2.2 E 5.4 0.0 1.2
02:26 10.9 9.2 89 1025.7 2.2 SW 3.8 0.0 1.2
02:27 10.9 9.2 89 1025.8 2.2 N 3.8 0.0 1.2
02:28 10.9 9.2 89 1025.8 1.6 NW 3.8 0.0 1.2
02:29 10.9 9.2 89 1025.7 2.2 W 3.8 0.0 1.2
02:30 10.9 9.2 89 1025.8 2.2 SW 3.8 0.0 1.2
02:31 10.9 9.2 89 1026.1 2.2 NW 3.8 0.0 1.2
02:32 10.9 9.2 89 1025.9 1.6 N 3.8 0.8 1.3
02:33 10.9 9.2 89 1025.9 1.6 NW 3.8 0.8 1.3
02:34 10.9 9.2 89 1025.8 2.2 NW 3.8 0.8 1.3
02:35 10.9 9.2 89 1025.7 1.6 SW 2.2 0.8 1.3
02:36 10.9 9.2 89 1025.9 1.6 SW 2.2 0.8 1.3
02:37 10.9 9.2 89 1025.9 1.6 SW 2.2 0.0 1.3
02:39 10.8 9.1 89 1026.0 3.1 W 3.1 0.0 1.3
02:40 10.8 9.1 89 1025.7 1.6 NE 3.1 0.0 1.3
02:41 10.8 9.1 89 1025.7 0.7 S 3.1 0.0 1.3
02:42 10.8 9.1 89 1025.5 2.2 NW 3.1 0.0 1.3
02:43 10.8 9.1 89 1025.7 3.1 NW 3.1 0.0 1.3
02:44 10.8 9.1 89 1025.9 2.2 NW 3.1 0.0 1.3
02:45 10.8 9.1 89 1025.9 2.2 NW 3.1 0.0 1.3
02:46 10.8 9.1 89 1025.8 2.2 W 3.1 0.0 1.3
02:47 10.7 9.0 89 1025.8 3.1 SW 3.1 0.0 1.3
02:48 10.7 9.0 89 1026.0 2.2 NW 3.1 0.0 1.3
02:49 10.7 9.0 89 1025.7 3.1 W 3.1 0.0 1.3
02:50 10.7 9.0 89 1025.8 3.1 W 3.1 0.0 1.3
02:51 10.7 9.0 89 1025.6 1.6 W 3.1 0.0 1.3
02:53 10.7 9.0 89 1025.5 1.6 SW 3.1 0.0 1.3
02:54 10.7 9.0 89 1025.9 1.6 NW 3.1 0.8 1.3
02:55 10.7 9.0 89 1025.7 0.7 N 3.1 0.8 1.3
02:56 10.7 9.0 89 1025.7 3.1 SW 3.1 0.8 1.3
02:57 10.7 9.0 89 1026.0 3.8 NE 3.8 0.8 1.3
02:58 10.7 9.0 89 1025.6 3.1 W 3.8 0.8 1.3
02:59 10.7 9.0 89 1025.8 2.2 W 3.8 0.0 1.3
03:00 10.7 9.0 89 1025.7 2.2 NW 3.8 0.0 1.3
03:01 10.7 9.0 89 1025.8 2.2 NW 3.8 0.0 1.3
03:02 10.7 9.0 89 1025.9 2.2 NW 3.8 0.0 1.3
03:03 10.7 9.0 89 1025.7 2.2 NW 3.8 0.0 1.3
03:04 10.7 9.0 89 1025.8 2.2 NW 3.8 0.0 1.3
03:05 10.7 9.0 89 1025.8 2.2 NW 3.8 0.0 1.3
03:08 10.6 8.9 89 1025.7 0.7 NE 3.1 0.0 1.3
03:09 10.6 8.9 89 1025.7 0.7 N 3.1 0.0 1.3
03:10 10.6 8.9 89 1025.7 1.6 NW 3.1 0.0 1.3
03:11 10.6 8.9 89 1025.8 0.7 N 3.1 0.0 1.3
03:12 10.6 8.9 89 1025.6 0.0 N 3.1 0.0 1.3
03:13 10.6 8.9 89 1025.6 0.0 N 3.1 0.0 1.3
03:14 10.6 8.9 89 1025.7 0.7 NE 3.1 0.0 1.3
03:15 10.6 8.9 89 1025.7 0.0 NE 3.1 0.0 1.3
03:16 10.6 8.9 89 1025.7 0.0 N 3.1 0.0 1.3
03:17 10.6 8.9 89 1025.7 0.7 N 2.2 0.0 1.3
03:18 10.6 8.9 89 1025.8 0.7 NW 2.2 0.0 1.3
03:19 10.6 8.9 89 1025.9 0.7 N 1.6 0.0 1.3
03:20 10.5 8.8 89 1025.8 1.6 NW 1.6 0.0 1.3
03:22 10.5 8.8 89 1025.8 1.6 NW 1.6 0.0 1.3
03:23 10.5 8.8 89 1025.8 1.6 N 1.6 0.0 1.3
03:24 10.5 8.8 89 1025.6 0.0 NE 1.6 0.0 1.3
03:25 10.5 8.8 89 1025.8 0.0 W 1.6 0.0 1.3
03:26 10.5 8.8 89 1025.8 0.7 N 1.6 0.0 1.3
03:27 10.5 8.8 89 1025.9 0.0 E 1.6 0.0 1.3
03:28 10.5 8.8 89 1025.8 0.7 NNE 1.6 0.0 1.3
03:29 10.5 8.8 89 1025.8 2.2 E 2.2 0.0 1.3
03:30 10.5 8.8 89 1025.8 1.6 E 2.2 0.0 1.3
03:31 10.5 8.8 89 1025.7 1.6 N 2.2 0.0 1.3
03:32 10.5 8.8 89 1025.7 2.2 NE 2.2 0.0 1.3
03:33 10.5 8.8 89 1025.8 2.2 NW 2.2 0.0 1.3
03:34 10.5 8.8 89 1025.7 1.6 N 3.1 0.0 1.3
03:36 10.5 8.6 88 1025.8 0.7 NE 3.1 0.0 1.3
03:37 10.5 8.6 88 1025.6 0.7 NE 3.1 0.0 1.3
03:38 10.5 8.6 88 1025.8 0.0 NE 3.1 0.0 1.3
03:39 10.5 8.6 88 1026.0 0.0 NE 3.1 0.0 1.3
03:40 10.5 8.6 88 1025.5 1.6 NW 3.1 0.0 1.3
03:41 10.5 8.6 88 1025.5 1.6 NW 3.1 0.0 1.3
03:42 10.5 8.6 88 1025.6 1.6 NW 3.1 0.0 1.3
03:43 10.4 8.5 88 1025.7 1.6 NW 3.1 0.0 1.3
03:44 10.4 8.5 88 1025.7 1.6 NE 1.6 0.0 1.3
03:45 10.4 8.5 88 1025.7 1.6 E 1.6 0.0 1.3
03:46 10.4 8.5 88 1025.7 1.6 NW 1.6 0.0 1.3
03:47 10.4 8.5 88 1025.8 0.7 NW 1.6 0.0 1.3
03:48 10.4 8.5 88 1025.8 0.0 NE 1.6 0.0 1.3
03:50 10.4 8.5 88 1025.7 0.7 NE 1.6 0.0 1.3
03:51 10.4 8.5 88 1025.8 0.7 NE 1.6 0.0 1.3
03:52 10.4 8.5 88 1025.7 1.6 NE 1.6 0.0 1.3
03:53 10.4 8.5 88 1025.8 0.7 NE 1.6 0.0 1.3
03:54 10.4 8.5 88 1025.8 0.7 NE 1.6 0.0 1.3
03:55 10.4 8.5 88 1025.8 0.7 NE 1.6 0.0 1.3
03:56 10.4 8.5 88 1025.8 2.2 E 2.2 0.0 1.3
03:57 10.4 8.5 88 1025.7 1.6 N 2.2 0.0 1.3
03:58 10.4 8.5 88 1025.8 3.1 N 3.1 0.0 1.3
03:59 10.4 8.5 88 1025.9 2.2 N 3.1 0.0 1.3
04:00 10.3 8.4 88 1025.6 0.7 N 3.1 0.0 1.3
04:01 10.3 8.4 88 1025.7 0.7 NE 3.1 0.0 1.3
04:02 10.3 8.4 88 1025.9 0.7 NE 3.1 0.0 1.3
04:04 10.3 8.4 88 1025.9 0.7 N 3.1 0.0 1.3
04:05 10.3 8.4 88 1025.7 0.7 NE 3.1 0.0 1.3
04:06 10.3 8.4 88 1025.7 0.7 NE 3.1 0.0 1.4
04:07 10.3 8.4 88 1025.9 0.7 NE 3.1 0.8 1.4
04:08 10.3 8.4 88 1026.1 1.6 NE 2.2 0.8 1.4
04:09 10.3 8.4 88 1026.1 1.6 NE 2.2 0.8 1.4
04:10 10.3 8.4 88 1025.9 2.2 NE 2.2 0.8 1.4
04:11 10.3 8.4 88 1025.8 0.7 N 2.2 0.8 1.4
04:12 10.3 8.4 88 1025.8 0.7 N 2.2 0.0 1.4
04:13 10.3 8.4 88 1025.6 0.7 N 2.2 0.0 1.4
04:14 10.3 8.4 88 1025.8 1.6 NE 2.2 0.0 1.4
04:15 10.3 8.4 88 1026.0 1.6 N 2.2 0.0 1.4
04:16 10.3 8.4 88 1026.0 0.7 NE 2.2 0.0 1.4
04:18 10.2 8.3 88 1025.9 1.6 NE 2.2 0.0 1.4
04:19 10.2 8.3 88 1025.8 1.6 N 2.2 0.0 1.4
04:20 10.2 8.3 88 1025.8 1.6 N 1.6 0.0 1.4
04:21 10.2 8.3 88 1025.8 3.1 NE 3.1 0.0 1.4
04:22 10.2 8.3 88 1025.7 2.2 N 3.1 0.0 1.4
04:23 10.2 8.3 88 1025.7 2.2 N 3.1 0.0 1.4
04:24 10.2 8.3 88 1025.7 1.6 NW 3.1 0.0 1.4
04:25 10.2 8.3 88 1025.8 1.6 NE 3.1 0.0 1.4
04:26 10.2 8.3 88 1025.7 0.7 NW 3.1 0.0 1.4
04:27 10.2 8.3 88 1025.8 1.6 E 3.1 0.0 1.4
04:28 10.2 8.3 88 1025.8 0.7 NE 3.1 0.0 1.4
04:29 10.2 8.3 88 1025.7 0.7 NE 3.1 0.0 1.4
04:30 10.2 8.3 88 1025.8 1.6 NW 3.1 0.0 1.4
04:32 10.2 8.3 88 1025.7 1.6 NE 2.2 0.0 1.4
04:33 10.2 8.3 88 1026.0 1.6 N 2.2 0.0 1.4
04:34 10.2 8.3 88 1025.9 1.6 NE 1.6 0.0 1.4
04:35 10.2 8.3 88 1025.8 0.7 NE 1.6 0.0 1.4
04:36 10.2 8.3 88 1025.7 0.0 NE 1.6 0.0 1.4
04:37 10.2 8.3 88 1025.9 1.6 N 1.6 0.0 1.4
04:38 10.2 8.3 88 1025.9 1.6 N 1.6 0.0 1.4
04:39 10.2 8.3 88 1026.0 0.7 NE 1.6 0.0 1.4
04:40 10.2 8.3 88 1026.0 0.7 NE 1.6 0.0 1.4
04:41 10.2 8.3 88 1025.8 0.7 N 1.6 0.0 1.4
04:42 10.2 8.3 88 1025.8 0.7 NE 1.6 0.0 1.4
04:43 10.2 8.3 88 1025.7 0.7 NE 1.6 0.0 1.4
04:44 10.2 8.3 88 1026.0 0.7 NW 1.6 0.0 1.4
04:46 10.2 8.3 88 1026.0 0.0 NE 1.6 0.0 1.4
04:47 10.2 8.3 88 1025.8 0.0 NE 1.6 0.0 1.4
04:48 10.2 8.3 88 1026.0 0.7 NNW 1.6 0.0 1.4
04:49 10.2 8.3 88 1026.1 1.6 N 1.6 0.0 1.4
04:50 10.2 8.3 88 1025.8 1.6 N 1.6 0.0 1.4
04:51 10.2 8.3 88 1026.1 1.6 NE 1.6 0.0 1.4
04:52 10.2 8.3 88 1025.8 1.6 N 1.6 0.0 1.4
04:53 10.2 8.3 88 1025.9 1.6 NE 1.6 0.0 1.4
04:54 10.2 8.3 88 1026.0 1.6 NE 1.6 0.0 1.4
04:55 10.2 8.3 88 1026.0 1.6 NE 1.6 0.0 1.4
04:56 10.2 8.3 88 1025.8 1.6 N 1.6 0.0 1.4
04:57 10.2 8.3 88 1026.0 2.2 N 2.2 0.0 1.4
04:58 10.2 8.3 88 1025.8 1.6 N 2.2 0.0 1.4
04:59 10.2 8.3 88 1025.7 1.6 N 2.2 0.0 1.4
05:01 10.2 8.3 88 1026.0 1.6 N 2.2 0.0 1.4
05:02 10.2 8.3 88 1026.0 1.6 N 2.2 0.0 1.4
05:03 10.2 8.3 88 1025.8 1.6 N 2.2 0.0 1.4
05:04 10.2 8.3 88 1025.7 1.6 N 2.2 0.0 1.4
05:05 10.2 8.3 88 1025.8 1.6 N 2.2 0.0 1.4
05:06 10.2 8.3 88 1025.8 1.6 N 2.2 0.0 1.4
05:07 10.2 8.3 88 1025.8 1.6 N 2.2 0.0 1.4
05:08 10.2 8.3 88 1026.1 1.6 NE 1.6 0.0 1.4
05:09 10.1 8.2 88 1026.0 0.7 NE 1.6 0.0 1.4
05:10 10.1 8.2 88 1025.9 1.6 NE 1.6 0.0 1.4
05:11 10.1 8.2 88 1026.0 0.7 NE 1.6 0.0 1.4
05:12 10.1 8.2 88 1026.0 0.7 NE 1.6 0.0 1.4
05:13 10.1 8.2 88 1026.1 0.0 NNE 1.6 0.0 1.4
05:15 10.1 8.2 88 1025.7 0.7 NE 1.6 0.0 1.4
05:16 10.1 8.2 88 1025.8 0.0 NE 1.6 0.0 1.4
05:17 10.1 8.2 88 1025.9 0.0 NE 1.6 0.0 1.4
05:18 10.1 8.2 88 1026.1 0.0 NE 1.6 0.0 1.4
05:19 10.1 8.2 88 1026.1 0.0 NE 1.6 0.0 1.4
05:20 10.1 8.2 88 1026.3 0.7 NE 0.7 0.0 1.4
05:21 10.1 8.2 88 1025.8 0.7 NE 0.7 0.0 1.4
05:22 10.1 8.2 88 1025.9 0.7 N 0.7 0.0 1.4
05:23 10.1 8.2 88 1025.9 0.0 E 0.7 0.0 1.4
05:24 10.1 8.2 88 1025.9 0.0 NW 0.7 0.0 1.4
05:25 10.1 8.2 88 1026.1 0.7 NW 0.7 0.0 1.4
05:26 10.0 8.1 88 1025.9 0.7 E 0.7 0.0 1.4
05:27 10.0 8.1 88 1026.1 0.0 E 0.7 0.0 1.4
05:29 10.0 8.1 88 1026.0 0.7 NE 0.7 0.0 1.4
05:30 10.0 8.1 88 1025.9 0.7 NE 0.7 0.0 1.4
05:31 10.0 8.1 88 1026.0 0.7 NE 0.7 0.0 1.4
05:32 10.0 8.1 88 1026.2 0.7 NE 0.7 0.0 1.4
05:33 10.0 8.1 88 1026.0 0.7 NE 0.7 0.0 1.4
05:34 10.0 8.1 88 1026.0 0.7 NE 0.7 0.0 1.4
05:35 10.0 8.1 88 1026.1 0.7 NE 0.7 0.0 1.4
05:36 10.0 8.1 88 1025.8 1.6 NE 1.6 0.0 1.4
05:37 10.0 8.1 88 1026.1 1.6 N 1.6 0.0 1.4
05:38 10.0 8.1 88 1026.0 1.6 NE 1.6 0.0 1.4
05:39 10.0 8.1 88 1026.1 0.7 NE 1.6 0.0 1.4
05:40 10.0 8.1 88 1025.9 0.7 NE 1.6 0.0 1.4
05:41 10.0 8.1 88 1026.0 2.2 N 2.2 0.0 1.4
05:43 10.0 8.1 88 1025.8 1.6 NE 2.2 0.0 1.4
05:44 10.0 8.1 88 1026.0 0.7 N 2.2 0.0 1.4
05:45 10.0 8.1 88 1025.9 0.7 N 2.2 0.0 1.4
05:46 10.0 8.1 88 1026.0 1.6 NE 2.2 0.0 1.4
05:47 10.0 8.1 88 1026.1 0.0 NE 2.2 0.0 1.4
05:48 10.0 8.1 88 1026.0 1.6 N 2.2 0.0 1.4
05:49 10.0 8.1 88 1025.7 1.6 NE 2.2 0.0 1.4
05:50 10.0 8.1 88 1026.0 3.1 N 3.1 0.0 1.4
05:51 10.0 8.1 88 1025.8 0.7 NE 3.1 0.0 1.4
05:52 10.0 8.1 88 1026.0 1.6 N 3.1 0.0 1.4
05:53 10.0 8.1 88 1025.8 1.6 NE 3.1 0.0 1.4
05:54 10.0 8.1 88 1025.8 1.6 N 3.1 0.0 1.4
05:55 10.0 8.1 88 1026.0 1.6 E 3.1 0.0 1.4
05:57 10.0 8.1 88 1025.9 0.7 NE 3.1 0.0 1.4
05:58 10.0 8.1 88 1025.9 0.7 NE 3.1 0.0 1.4
05:59 10.0 8.1 88 1025.9 0.7 NE 3.1 0.0 1.4
06:00 10.0 8.1 88 1025.9 1.6 N 3.1 0.0 1.4
06:01 10.0 8.1 88 1026.1 1.6 NE 1.6 0.0 1.4
06:02 10.0 8.1 88 1026.1 1.6 NE 1.6 0.0 1.4
06:03 10.0 8.1 88 1025.8 1.6 N 1.6 0.0 1.4
06:04 10.0 8.1 88 1026.0 0.7 N 1.6 0.0 1.4
06:05 10.0 8.1 88 1025.8 0.7 NE 1.6 0.0 1.4
06:06 10.0 8.1 88 1026.0 0.0 NE 1.6 0.0 1.4
06:07 10.0 8.1 88 1026.0 0.7 NE 1.6 0.0 1.4
06:08 10.0 8.1 88 1026.1 0.0 NE 1.6 0.0 1.4
06:09 10.0 8.1 88 1025.7 0.0 NE 1.6 0.0 1.4
06:11 10.0 8.1 88 1025.8 0.7 NE 1.6 0.0 1.4
06:12 10.0 8.1 88 1026.1 0.0 E 1.6 0.0 1.4
06:13 10.0 8.1 88 1026.0 0.0 E 0.7 0.0 1.4
06:14 10.0 8.1 88 1025.9 0.0 NE 0.7 0.0 1.4
06:15 10.0 8.1 88 1025.8 0.0 NE 0.7 0.0 1.4
06:16 10.0 8.1 88 1025.8 0.0 NE 0.7 0.0 1.4
06:17 10.0 8.1 88 1025.9 0.0 NE 0.7 0.0 1.4
06:18 10.0 8.1 88 1026.1 0.0 NE 0.7 0.0 1.4
06:19 10.0 8.1 88 1026.0 0.7 NE 0.7 0.0 1.4
06:20 10.0 8.1 88 1025.8 0.0 NE 0.7 0.0 1.4
06:21 10.0 8.1 88 1026.0 0.0 NE 0.7 0.0 1.4
06:22 10.0 8.1 88 1025.9 0.0 NE 0.7 0.0 1.4
06:23 9.9 8.0 88 1025.9 0.0 NE 0.7 0.0 1.4
06:25 9.9 8.0 88 1026.0 0.0 NE 0.7 0.0 1.4
06:26 9.9 8.0 88 1026.0 0.0 NE 0.7 0.0 1.4
06:27 9.9 8.0 88 1026.2 0.0 NE 0.7 0.0 1.4
06:28 9.9 8.0 88 1025.9 0.0 NE 0.7 0.0 1.4
06:29 9.9 8.0 88 1026.1 0.0 NE 0.0 0.0 1.4
06:30 9.9 8.0 88 1026.1 0.0 NE 0.0 0.0 1.4
06:31 9.9 8.0 88 1026.0 0.0 E 0.0 0.0 1.4
06:32 9.9 8.0 88 1026.0 0.0 E 0.0 0.0 1.4
06:33 9.9 8.0 88 1025.8 0.0 E 0.0 0.0 1.4
06:34 9.9 8.0 88 1026.1 0.0 E 0.0 0.0 1.4
06:35 9.9 8.0 88 1026.1 0.0 E 0.0 0.0 1.4
06:36 9.9 8.0 88 1025.9 0.0 E 0.0 0.0 1.4
06:37 9.9 8.0 88 1025.9 0.0 E 0.0 0.0 1.4
06:39 9.9 8.0 88 1026.1 0.0 E 0.0 0.0 1.4
06:40 9.9 8.0 88 1026.1 0.0 E 0.0 0.0 1.4
06:41 9.9 8.0 88 1025.9 0.0 E 0.0 0.0 1.4
06:42 9.9 8.0 88 1026.0 0.0 E 0.0 0.0 1.4
06:43 9.9 8.0 88 1026.1 0.0 E 0.0 0.0 1.4
06:44 9.9 8.0 88 1026.0 0.0 E 0.0 0.0 1.4
06:45 9.9 8.0 88 1026.3 0.0 E 0.0 0.0 1.4
06:46 9.9 8.0 88 1026.1 0.0 E 0.0 0.0 1.4
06:47 9.8 7.9 88 1025.9 0.0 E 0.0 0.0 1.4
06:48 9.8 7.9 88 1026.0 0.7 E 0.7 0.0 1.4
06:49 9.8 7.9 88 1026.1 0.7 E 0.7 0.0 1.4
06:50 9.8 7.9 88 1026.2 0.7 E 0.7 0.0 1.4
06:51 9.8 7.9 88 1026.1 0.0 E 0.7 0.0 1.4
06:53 9.8 7.9 88 1026.0 0.0 E 0.7 0.0 1.4
06:54 9.8 7.9 88 1026.1 0.0 E 0.7 0.0 1.4
06:55 9.8 7.9 88 1026.1 0.0 E 0.7 0.0 1.4
06:56 9.8 7.9 88 1026.1 0.0 E 0.7 0.0 1.4
06:57 9.8 7.9 88 1026.1 0.0 E 0.7 0.0 1.4
06:58 9.8 7.9 88 1026.1 0.0 E 0.7 0.0 1.4
06:59 9.8 7.9 88 1026.3 0.0 E 0.7 0.0 1.4
07:00 9.8 7.9 88 1025.9 0.0 E 0.0 0.0 1.4
07:01 9.8 7.9 88 1026.2 0.0 E 0.0 0.0 1.4
07:02 9.8 7.9 88 1026.1 0.0 E 0.0 0.0 1.4
07:03 9.8 7.9 88 1026.2 0.0 E 0.0 0.0 1.4
07:04 9.8 7.9 88 1026.2 0.0 E 0.0 0.0 1.4
07:05 9.8 7.9 88 1026.0 0.0 E 0.0 0.0 1.4
07:07 9.7 7.8 88 1026.1 0.0 E 0.0 0.8 1.4
07:08 9.7 7.8 88 1026.4 0.0 E 0.0 0.8 1.4
07:09 9.7 7.8 88 1026.0 0.0 E 0.0 0.8 1.4
07:10 9.7 7.8 88 1026.1 0.0 E 0.0 0.8 1.4
07:11 9.7 7.8 88 1026.0 0.0 E 0.0 0.8 1.4
07:12 9.7 7.8 88 1026.0 0.0 E 0.0 0.0 1.4
07:13 9.7 7.8 88 1026.2 0.0 E 0.0 0.0 1.4
07:14 9.7 7.8 88 1026.2 0.0 E 0.0 0.0 1.4
07:15 9.7 7.8 88 1026.2 0.0 E 0.0 0.0 1.4
07:16 9.7 7.8 88 1026.0 0.0 E 0.0 0.0 1.4
07:17 9.7 7.8 88 1026.1 0.0 E 0.0 0.0 1.4
07:18 9.7 7.8 88 1026.0 0.0 E 0.0 0.0 1.4
07:19 9.7 7.8 88 1025.9 0.0 E 0.0 0.0 1.4
07:21 9.7 7.8 88 1026.2 0.0 E 0.0 0.0 1.4
07:22 9.7 7.8 88 1026.0 0.0 E 0.0 0.0 1.4
07:23 9.7 7.8 88 1026.1 0.0 E 0.0 0.0 1.4
07:24 9.7 7.8 88 1026.0 0.0 E 0.0 0.0 1.4
07:25 9.7 7.8 88 1026.2 0.0 E 0.0 0.0 1.4
07:26 9.7 7.8 88 1026.2 0.0 E 0.0 0.0 1.4
07:27 9.7 7.8 88 1026.0 0.0 E 0.0 0.0 1.4
07:28 9.7 7.8 88 1026.0 0.0 E 0.0 0.0 1.4
07:29 9.7 7.8 88 1026.1 0.0 E 0.0 0.0 1.4
07:30 9.7 7.8 88 1026.3 0.0 E 0.0 0.0 1.4
07:31 9.7 7.8 88 1026.2 0.0 E 0.0 0.0 1.4
07:32 9.7 7.8 88 1026.3 0.0 E 0.0 0.0 1.4
07:33 9.7 7.8 88 1026.1 0.0 E 0.0 0.0 1.4
07:34 9.7 7.8 88 1026.1 0.0 E 0.0 0.0 1.4
07:36 9.7 7.8 88 1026.1 0.0 E 0.0 0.0 1.4
07:37 9.7 7.8 88 1026.2 0.0 E 0.0 0.0 1.4
07:38 9.7 7.8 88 1026.3 0.0 E 0.0 0.0 1.4
07:39 9.7 7.8 88 1026.3 0.0 E 0.0 0.0 1.4
07:40 9.7 7.8 88 1026.4 0.7 E 0.7 0.0 1.4
07:41 9.7 7.8 88 1026.4 0.7 E 0.7 0.0 1.4
07:42 9.7 7.8 88 1026.1 0.7 E 0.7 0.0 1.4
07:43 9.7 7.8 88 1026.2 0.7 E 0.7 0.0 1.4
07:44 9.7 7.8 88 1026.2 0.7 E 0.7 0.0 1.4
07:45 9.7 7.8 88 1026.3 0.0 E 0.7 0.0 1.4
07:46 9.7 7.8 88 1026.2 0.0 E 0.7 0.0 1.4
07:47 9.7 7.8 88 1026.2 0.0 E 0.7 0.0 1.4
07:48 9.7 7.8 88 1026.3 0.0 E 0.7 0.0 1.4
07:50 9.7 7.8 88 1026.4 0.0 E 0.7 0.0 1.4
07:51 9.7 7.8 88 1026.4 0.0 E 0.7 0.0 1.4
07:52 9.7 7.8 88 1026.4 0.0 E 0.7 0.0 1.4
07:53 9.7 7.8 88 1026.3 0.0 E 0.7 0.0 1.4
07:54 9.7 7.8 88 1026.2 0.0 E 0.0 0.0 1.4
07:55 9.7 7.8 88 1026.2 0.0 E 0.0 0.0 1.4
07:56 9.7 7.8 88 1026.3 1.6 NE 1.6 0.0 1.4
07:57 9.7 7.8 88 1026.3 1.6 E 1.6 0.0 1.4
07:58 9.7 7.8 88 1026.4 1.6 W 1.6 0.0 1.4
07:59 9.7 7.8 88 1026.2 1.6 E 1.6 0.0 1.4
08:00 9.7 7.8 88 1026.1 0.7 E 1.6 0.0 1.4
08:01 9.7 7.8 88 1026.2 0.0 S 1.6 0.0 1.4
08:02 9.7 7.8 88 1026.4 0.0 S 1.6 0.0 1.4
08:04 9.7 7.8 88 1026.2 2.2 N 2.2 0.0 1.4
08:05 9.7 7.8 88 1026.3 1.6 NE 2.2 0.0 1.4
08:06 9.7 7.8 88 1026.2 0.7 N 2.2 0.0 1.4
08:07 9.7 7.8 88 1026.3 0.7 N 2.2 0.0 1.4
08:08 9.7 7.8 88 1026.4 0.0 N 2.2 0.0 1.4
08:09 9.7 7.8 88 1026.2 0.0 N 2.2 0.0 1.4
08:10 9.7 7.8 88 1026.2 0.0 N 2.2 0.0 1.4
08:11 9.7 7.8 88 1026.3 0.0 N 2.2 0.0 1.4
08:12 9.7 7.8 88 1026.2 0.0 N 2.2 0.0 1.4
08:13 9.7 7.8 88 1026.2 0.0 N 2.2 0.0 1.4
08:14 9.7 7.8 88 1026.2 0.0 N 2.2 0.0 1.4
08:15 9.7 7.8 88 1026.5 0.0 E 2.2 0.0 1.4
08:16 9.7 7.8 88 1026.2 0.0 E 0.7 0.0 1.4
08:18 9.7 7.8 88 1026.1 0.0 E 0.0 0.0 1.4
08:19 9.7 7.8 88 1026.2 0.0 E 0.0 0.0 1.4
08:20 9.7 7.8 88 1026.6 0.0 E 0.0 0.0 1.4
08:21 9.7 7.8 88 1026.3 0.0 E 0.0 0.0 1.4
08:22 9.7 7.8 88 1026.5 0.0 E 0.0 0.0 1.4
08:23 9.7 7.8 88 1026.5 0.0 E 0.0 0.0 1.4
08:24 9.7 7.8 88 1026.4 0.0 E 0.0 0.0 1.4
08:25 9.7 7.8 88 1026.4 0.0 E 0.0 0.0 1.4
08:26 9.7 7.8 88 1026.2 0.0 E 0.0 0.0 1.4
08:27 9.7 7.8 88 1026.4 0.0 E 0.0 0.0 1.4
08:28 9.7 7.8 88 1026.5 0.0 E 0.0 0.0 1.4
08:29 9.7 7.8 88 1026.2 0.0 E 0.0 0.0 1.4
08:30 9.7 7.8 88 1026.3 0.0 E 0.0 0.0 1.4
08:32 9.7 7.8 88 1026.5 0.0 E 0.0 0.0 1.4
08:33 9.7 7.8 88 1026.6 0.0 E 0.0 0.0 1.4
08:34 9.7 7.8 88 1026.3 0.0 E 0.0 0.0 1.4
08:35 9.8 7.9 88 1026.5 0.0 E 0.0 0.0 1.4
08:36 9.8 7.9 88 1026.3 0.0 E 0.0 0.0 1.4
08:37 9.8 7.9 88 1026.5 0.0 E 0.0 0.0 1.4
08:38 9.8 7.9 88 1026.5 0.0 E 0.0 0.0 1.4
08:39 9.8 7.9 88 1026.3 0.0 SE 0.0 0.0 1.4
08:40 9.8 7.9 88 1026.5 0.7 SE 0.7 0.0 1.4
08:41 9.8 7.9 88 1026.3 0.0 SE 0.7 0.0 1.4
08:42 9.8 7.9 88 1026.5 0.0 SE 0.7 0.0 1.4
08:43 9.8 7.9 88 1026.5 0.7 SE 0.7 0.0 1.4
08:44 9.9 8.0 88 1026.4 1.6 S 1.6 0.0 1.4
08:46 9.9 8.0 88 1026.4 1.6 SE 1.6 0.0 1.4
08:47 9.9 8.0 88 1026.6 1.6 SE 1.6 0.0 1.4
08:48 9.9 8.0 88 1026.4 1.6 S 1.6 0.0 1.4
08:49 9.9 8.0 88 1026.5 1.6 SE 1.6 0.0 1.4
08:50 9.9 8.0 88 1026.3 0.7 SE 1.6 0.0 1.4
08:51 9.9 8.0 88 1026.4 0.7 SE 1.6 0.0 1.4
08:52 9.9 8.0 88 1026.4 1.6 S 1.6 0.0 1.4
08:53 9.9 8.0 88 1026.4 1.6 SE 1.6 0.0 1.4
08:54 9.9 8.0 88 1026.2 1.6 SE 1.6 0.0 1.4
08:55 9.9 8.0 88 1026.4 0.7 SE 1.6 0.0 1.4
08:56 9.9 8.0 88 1026.4 0.7 SE 1.6 0.0 1.4
08:57 9.9 8.0 88 1026.5 1.6 SE 1.6 0.0 1.4
08:58 9.9 8.0 88 1026.4 1.6 SE 1.6 0.0 1.4
08:59 9.9 8.0 88 1026.3 0.0 SE 1.6 0.0 1.4
09:01 9.9 8.0 88 1026.3 0.0 SE 1.6 0.0 1.4
09:02 9.9 8.0 88 1026.5 0.0 SE 1.6 0.0 1.4
09:03 9.9 8.0 88 1026.4 0.0 SE 1.6 0.0 1.4
09:04 9.9 8.0 88 1026.5 0.0 SE 1.6 0.0 1.4
09:05 9.9 8.0 88 1026.4 0.0 SE 1.6 0.0 1.4
09:06 9.9 8.0 88 1026.4 0.0 SE 1.6 0.0 1.4
09:07 9.9 8.0 88 1026.6 0.0 SE 1.6 0.0 1.4
09:08 9.9 8.0 88 1026.4 0.0 SE 0.7 0.0 1.4
09:09 9.9 8.0 88 1026.5 0.0 SE 0.0 0.0 1.4
09:10 9.9 8.0 88 1026.8 0.0 SE 0.0 0.0 1.4
09:11 9.9 8.0 88 1026.4 1.6 SE 1.6 0.0 1.4
09:12 9.9 8.0 88 1026.5 1.6 S 1.6 0.0 1.4
09:13 9.9 8.0 88 1026.5 1.6 S 1.6 0.8 1.5
09:14 9.9 8.0 88 1026.2 1.6 S 1.6 0.8 1.5
09:15 9.9 8.0 88 1026.6 1.6 S 1.6 0.8 1.5
09:17 9.9 8.0 88 1026.5 1.6 SE 1.6 0.8 1.5
09:18 9.9 8.0 88 1026.5 1.6 SE 1.6 0.0 1.5
09:19 9.9 8.0 88 1026.5 1.6 S 1.6 0.0 1.5
09:20 9.9 8.0 88 1026.5 1.6 SE 1.6 0.0 1.5
09:21 9.9 8.0 88 1026.4 0.7 SSE 1.6 0.0 1.5
09:22 9.9 8.0 88 1026.5 1.6 S 1.6 0.0 1.5
09:23 9.9 8.0 88 1026.4 1.6 SE 1.6 0.0 1.5
09:24 9.9 8.0 88 1026.3 1.6 SE 1.6 0.0 1.5
09:25 9.9 8.0 88 1026.6 1.6 S 1.6 0.0 1.5
09:26 9.9 8.0 88 1026.5 1.6 S 1.6 0.0 1.5
09:27 10.0 8.1 88 1026.5 1.6 S 1.6 0.0 1.5
09:28 10.0 8.1 88 1026.4 1.6 SE 1.6 0.0 1.5
09:29 10.0 8.1 88 1026.3 1.6 SE 1.6 0.0 1.5
09:30 10.0 8.1 88 1026.4 1.6 SE 1.6 0.0 1.5
09:32 10.0 8.1 88 1026.7 2.2 S 2.2 0.0 1.5
09:33 10.0 8.1 88 1026.7 2.2 S 2.2 0.0 1.5
09:34 10.0 8.1 88 1026.4 1.6 SE 2.2 0.0 1.5
09:35 10.0 8.1 88 1026.5 0.7 SE 2.2 0.0 1.5
09:36 10.0 8.1 88 1026.6 1.6 S 2.2 0.0 1.5
09:37 10.0 8.1 88 1026.6 1.6 S 2.2 0.0 1.5
09:38 10.0 8.1 88 1026.5 1.6 S 2.2 0.0 1.5
09:39 10.1 8.2 88 1026.7 1.6 S 2.2 0.0 1.5
09:40 10.1 8.2 88 1026.4 0.7 S 2.2 0.0 1.5
09:41 10.1 8.2 88 1026.5 1.6 S 2.2 0.0 1.5
09:42 10.1 8.2 88 1026.7 1.6 SE 2.2 0.0 1.5
09:43 10.1 8.2 88 1026.7 0.7 S 2.2 0.0 1.5
09:44 10.1 8.2 88 1026.5 0.7 SE 1.6 0.0 1.5
09:46 10.1 8.2 88 1026.6 0.7 SE 1.6 0.0 1.5
09:47 10.1 8.4 89 1026.6 0.0 SE 1.6 0.0 1.5
09:48 10.1 8.4 89 1026.8 0.0 S 1.6 0.0 1.5
09:49 10.1 8.4 89 1026.4 1.6 S 1.6 0.0 1.5
09:50 10.1 8.4 89 1026.6 1.6 S 1.6 0.0 1.5
09:52 10.1 8.4 89 1026.5 1.6 S 1.6 0.0 1.5
09:53 10.1 8.4 89 1026.6 1.6 S 1.6 0.0 1.5
09:54 10.1 8.4 89 1026.7 0.7 S 1.6 0.0 1.5
09:55 10.1 8.4 89 1026.5 1.6 S 1.6 0.0 1.5
09:56 10.1 8.4 89 1026.7 1.6 S 1.6 0.0 1.5
09:57 10.1 8.4 89 1026.6 1.6 S 1.6 0.0 1.5
09:58 10.1 8.4 89 1026.6 0.7 S 1.6 0.0 1.5
09:59 10.1 8.4 89 1026.5 0.7 S 1.6 0.0 1.5
10:00 10.1 8.4 89 1026.6 1.6 S 1.6 0.0 1.5
10:01 10.1 8.4 89 1026.3 1.6 S 1.6 0.0 1.5
10:02 10.1 8.4 89 1026.7 1.6 S 1.6 0.0 1.5
10:03 10.1 8.4 89 1026.6 1.6 S 1.6 0.0 1.5
10:04 10.1 8.4 89 1026.7 1.6 S 1.6 0.0 1.5
10:05 10.1 8.4 89 1026.8 1.6 S 1.6 0.0 1.5
10:06 10.1 8.4 89 1026.7 0.7 N 1.6 0.0 1.6
10:07 10.1 8.4 89 1026.6 0.0 NW 1.6 0.8 1.6
10:08 10.2 8.5 89 1026.8 0.7 NE 1.6 0.8 1.6
10:09 10.2 8.5 89 1026.8 0.0 NE 1.6 0.8 1.6
10:11 10.2 8.5 89 1026.6 0.7 NE 1.6 0.8 1.6
10:12 10.2 8.5 89 1026.7 0.7 NE 1.6 0.0 1.6
10:13 10.2 8.5 89 1026.8 0.0 NE 1.6 0.0 1.6
10:14 10.2 8.5 89 1026.8 0.7 NE 1.6 0.0 1.6
10:15 10.2 8.5 89 1026.7 0.7 NE 1.6 0.0 1.6
10:16 10.2 8.5 89 1026.5 0.7 NE 0.7 0.0 1.6
10:17 10.2 8.5 89 1026.6 0.7 NE 0.7 0.0 1.6
10:18 10.2 8.5 89 1026.5 0.7 N 0.7 0.0 1.6
10:19 10.2 8.5 89 1026.5 2.2 N 2.2 0.0 1.6
10:20 10.2 8.5 89 1026.6 2.2 NE 2.2 0.8 1.6
10:21 10.3 8.6 89 1026.6 1.6 N 2.2 0.8 1.6
10:22 10.3 8.6 89 1026.7 2.2 N 2.2 0.8 1.6
10:23 10.3 8.6 89 1026.6 0.7 NE 2.2 0.8 1.6
10:24 10.3 8.6 89 1026.7 1.6 N 2.2 0.8 1.6
10:26 10.3 8.6 89 1026.7 0.7 NE 2.2 0.0 1.6
10:27 10.3 8.6 89 1026.7 1.6 N 2.2 0.0 1.6
10:28 10.3 8.6 89 1026.7 1.6 N 2.2 0.0 1.6
10:29 10.3 8.6 89 1026.9 2.2 NW 2.2 0.0 1.6
10:30 10.3 8.6 89 1026.6 2.2 N 2.2 0.0 1.6
10:31 10.3 8.6 89 1026.8 0.7 NE 2.2 0.0 1.7
10:32 10.3 8.6 89 1026.6 0.7 NE 2.2 0.8 1.7
10:33 10.3 8.6 89 1026.9 0.7 NE 2.2 0.8 1.7
10:34 10.3 8.6 89 1026.7 1.6 E 2.2 1.5 1.8
10:35 10.3 8.6 89 1026.6 1.6 NE 2.2 1.5 1.8
10:36 10.3 8.6 89 1026.9 2.2 NE 2.2 1.5 1.8
10:37 10.3 8.6 89 1026.7 2.2 N 2.2 0.8 1.8
10:38 10.3 8.6 89 1026.8 1.6 NE 2.2 1.5 1.8
10:39 10.4 8.7 89 1026.8 1.6 NE 2.2 0.8 1.8
10:41 10.4 8.7 89 1026.7 2.2 NE 2.2 1.5 1.9
10:42 10.4 8.7 89 1027.0 1.6 NE 2.2 1.5 1.9
10:43 10.4 8.7 89 1026.9 2.2 N 2.2 0.8 1.9
10:44 10.4 8.7 89 1027.0 2.2 N 2.2 0.8 1.9
10:45 10.4 8.7 89 1026.9 3.1 NE 3.1 0.8 1.9
10:46 10.4 8.7 89 1026.9 3.1 NE 3.1 0.0 1.9
10:47 10.4 8.7 89 1027.1 2.2 NW 3.1 0.0 1.9
10:48 10.4 8.7 89 1026.9 3.1 N 3.1 0.0 1.9
10:49 10.4 8.7 89 1026.9 3.1 N 3.1 0.0 1.9
10:50 10.3 8.6 89 1026.9 2.2 NW 3.1 0.0 1.9
10:51 10.3 8.6 89 1027.0 3.1 N 3.1 0.0 1.9
10:52 10.3 8.6 89 1026.9 3.1 NE 3.1 0.0 1.9
10:53 10.3 8.6 89 1026.9 2.2 NE 3.1 0.0 1.9
10:55 10.3 8.6 89 1026.8 0.7 NE 3.1 0.0 2.0
10:56 10.3 8.6 89 1026.8 3.1 N 3.1 0.8 2.0
10:57 10.3 8.6 89 1026.7 1.6 N 3.1 0.8 2.0
10:58 10.3 8.6 89 1027.0 3.1 N 3.1 0.8 2.0
10:59 10.3 8.6 89 1026.8 3.1 N 3.1 1.5 2.0
11:00 10.3 8.6 89 1027.1 2.2 NW 3.1 1.5 2.0
11:01 10.3 8.6 89 1027.1 2.2 NW 3.1 0.8 2.0
11:02 10.3 8.6 89 1027.1 2.2 NW 3.1 0.8 2.0
11:03 10.3 8.6 89 1026.7 2.2 NW 3.1 0.8 2.0
11:04 10.3 8.6 89 1026.8 2.2 NW 3.1 0.0 2.0
11:05 10.3 8.6 89 1026.8 2.2 NW 3.1 0.0 2.0
11:06 10.4 8.7 89 1026.9 2.2 N 3.1 0.0 2.0
11:07 10.5 8.8 89 1026.7 2.2 NE 3.1 0.0 2.0
11:08 10.5 8.8 89 1026.6 2.2 N 3.1 0.0 2.0
11:10 10.6 8.9 89 1026.7 1.6 NE 2.2 0.0 2.0
11:11 10.6 8.9 89 1026.9 0.7 NE 2.2 0.0 2.0
11:12 10.6 8.9 89 1026.8 1.6 NNE 2.2 0.0 2.0
11:13 10.6 8.9 89 1026.6 0.7 E 2.2 0.0 2.0
11:14 10.6 8.9 89 1026.6 1.6 N 2.2 0.0 2.0
11:15 10.7 9.0 89 1026.6 1.6 NE 2.2 0.0 2.1
11:16 10.7 9.0 89 1026.6 2.2 NE 2.2 0.8 2.1
11:17 10.7 9.0 89 1026.8 3.1 E 3.1 0.8 2.1
11:18 10.7 9.0 89 1026.8 3.1 E 3.1 0.8 2.1
11:19 10.8 9.1 89 1026.7 2.2 E 3.1 0.8 2.1
11:20 10.8 9.1 89 1026.8 1.6 E 3.1 1.5 2.1
11:21 10.8 9.1 89 1026.8 1.6 NE 3.1 1.5 2.2
11:22 10.8 9.1 89 1026.7 1.6 NE 3.1 1.5 2.2
11:23 10.9 9.2 89 1026.6 3.1 NE 3.1 1.5 2.2
11:24 10.9 9.2 89 1026.7 2.2 NE 3.1 2.3 2.3
11:25 10.9 9.2 89 1026.7 2.2 NE 3.1 1.5 2.3
11:27 11.0 9.3 89 1026.7 2.2 E 3.1 0.8 2.3
11:28 11.0 9.3 89 1026.6 1.6 E 3.1 0.8 2.3
11:29 11.0 9.3 89 1026.7 1.6 E 3.1 0.0 2.3
11:30 11.0 9.3 89 1026.7 2.2 NE 3.1 0.0 2.3
11:31 11.0 9.3 89 1026.8 1.6 N 3.1 0.8 2.3
11:32 11.0 9.3 89 1026.6 1.6 NE 3.1 0.8 2.3
11:33 11.0 9.3 89 1026.6 2.2 N 3.1 0.8 2.3
11:34 11.0 9.3 89 1026.5 2.2 NE 2.2 0.8 2.3
11:35 11.0 9.3 89 1026.8 2.2 NE 2.2 0.8 2.3
11:36 11.0 9.3 89 1026.6 2.2 NE 2.2 0.0 2.3
11:37 11.0 9.3 89 1026.8 2.2 E 2.2 0.0 2.3
11:38 11.0 9.3 89 1026.7 3.8 NE 3.8 0.0 2.3
11:39 11.0 9.3 89 1026.8 3.1 NE 3.8 0.0 2.4
11:41 11.0 9.3 89 1026.6 2.2 NE 3.8 0.8 2.5
11:42 11.0 9.3 89 1026.6 2.2 NE 3.8 1.5 2.5
11:43 11.0 9.3 89 1026.5 0.0 NE 3.8 1.5 2.5
11:44 11.0 9.3 89 1026.6 3.1 N 3.8 1.5 2.5
11:45 11.0 9.3 89 1026.6 3.1 N 3.8 0.8 2.5
11:46 11.0 9.3 89 1026.7 2.2 NE 3.8 0.8 2.5
11:47 11.0 9.3 89 1026.5 3.1 NE 3.8 0.0 2.5
11:48 11.0 9.3 89 1026.6 3.1 NE 3.8 0.8 2.5
11:49 10.9 9.2 89 1026.7 2.2 N 3.1 1.5 2.6
11:50 10.9 9.2 89 1026.5 3.1 NE 3.1 1.5 2.6
11:51 10.9 9.2 89 1026.8 3.1 NE 3.1 1.5 2.6
11:52 10.9 9.2 89 1026.6 3.1 NE 3.1 1.5 2.6
11:53 10.9 9.2 89 1026.6 3.1 NE 3.1 0.8 2.6
11:55 10.9 9.2 89 1026.6 3.1 NE 3.1 0.0 2.6
11:56 10.9 9.2 89 1026.6 3.1 NE 3.1 0.0 2.6
11:57 10.9 9.2 89 1026.4 3.1 NE 3.1 0.8 2.6
11:58 10.9 9.2 89 1026.6 3.1 NE 3.1 0.8 2.6
11:59 10.9 9.2 89 1026.7 3.1 NE 3.1 0.8 2.6
12:00 10.9 9.2 89 1026.5 3.8 NE 3.8 0.8 2.6
12:01 10.9 9.2 89 1026.5 3.8 NE 3.8 0.8 2.6
12:02 10.9 9.2 89 1026.6 3.8 NE 3.8 0.0 2.6
12:03 11.0 9.3 89 1026.6 4.5 NE 4.5 0.0 2.6
12:04 11.0 9.3 89 1026.4 3.1 NE 4.5 0.8 2.7
12:05 11.0 9.3 89 1026.4 3.8 E 4.5 0.8 2.7
12:06 11.0 9.3 89 1026.6 3.8 ENE 4.5 0.8 2.7
12:07 11.0 9.3 89 1026.7 3.1 NE 4.5 0.8 2.7
12:09 11.0 9.3 89 1026.5 3.1 NE 4.5 0.0 2.7
12:10 11.0 9.3 89 1026.6 3.1 NE 4.5 0.0 2.7
12:11 11.0 9.3 89 1026.6 3.1 NE 4.5 0.0 2.7
12:12 11.0 9.3 89 1026.5 3.1 NE 4.5 0.0 2.7
12:13 11.0 9.3 89 1026.4 2.2 E 3.8 0.0 2.7
12:14 11.0 9.3 89 1026.5 2.2 E 3.8 0.0 2.7
12:15 11.0 9.3 89 1026.5 2.2 E 3.8 0.0 2.7
12:16 11.0 9.3 89 1026.2 3.8 NNE 3.8 0.0 2.7
12:17 11.0 9.3 89 1026.3 3.8 NNE 3.8 0.0 2.7
12:18 11.0 9.3 89 1026.4 3.8 NNE 3.8 0.0 2.7
12:19 11.0 9.3 89 1026.4 3.1 NE 3.8 0.0 2.7
12:20 11.0 9.3 89 1026.5 3.1 NE 3.8 0.0 2.7
12:21 11.0 9.3 89 1026.4 3.1 NE 3.8 0.0 2.7
12:22 11.0 9.3 89 1026.3 3.1 NE 3.8 0.0 2.7
12:24 11.0 9.3 89 1026.7 3.1 NE 3.8 0.0 2.7
12:25 11.1 9.4 89 1026.4 2.2 E 3.8 0.0 2.8
12:26 11.1 9.4 89 1026.3 1.6 NE 3.8 0.8 2.8
12:27 11.1 9.4 89 1026.3 1.6 NE 3.8 1.5 2.8
12:28 11.1 9.4 89 1026.1 3.1 NE 3.1 2.3 2.9
12:29 11.1 9.4 89 1026.1 3.1 NE 3.1 2.3 2.9
12:30 11.1 9.4 89 1026.2 2.2 N 3.1 2.3 2.9
12:31 11.1 9.4 89 1026.4 3.8 NE 3.8 1.5 2.9
12:32 11.1 9.4 89 1026.3 3.8 ENE 3.8 0.8 2.9
12:33 11.1 9.4 89 1026.4 3.8 ENE 3.8 0.0 2.9
12:34 11.1 9.4 89 1026.3 3.8 ENE 3.8 0.0 2.9
12:35 11.1 9.4 89 1026.3 2.2 NE 3.8 0.0 2.9
12:36 11.1 9.4 89 1026.1 3.1 NE 3.8 0.8 3.0
12:38 11.1 9.4 89 1026.3 3.1 NE 3.8 0.8 3.0
12:39 11.1 9.4 89 1026.5 3.1 NE 3.8 0.8 3.0
12:40 11.1 9.4 89 1026.2 4.5 NE 4.5 0.8 3.0
12:41 11.1 9.4 89 1026.2 4.5 NE 4.5 0.0 3.0
12:42 11.1 9.4 89 1026.4 3.8 E 4.5 0.0 3.0
12:43 11.0 9.3 89 1026.1 3.8 ENE 4.5 0.0 3.0
12:44 11.0 9.3 89 1026.3 3.8 ENE 4.5 0.0 3.0
12:45 11.0 9.3 89 1026.3 3.8 ENE 4.5 0.0 3.0
12:46 11.0 9.3 89 1026.4 3.8 ENE 4.5 0.0 3.0
12:47 11.0 9.3 89 1026.5 3.8 ENE 4.5 0.0 3.0
12:48 11.0 9.3 89 1026.4 3.8 ENE 4.5 0.0 3.0
12:49 10.9 9.2 89 1026.3 3.1 NE 4.5 0.0 3.0
12:50 10.9 9.2 89 1026.2 3.1 NE 4.5 0.0 3.0
12:52 10.9 9.2 89 1026.2 3.1 NE 3.8 0.0 3.0
12:53 10.9 9.2 89 1026.3 3.1 E 3.8 0.0 3.0
12:54 10.9 9.2 89 1026.2 3.1 E 3.8 0.0 3.0
12:55 10.9 9.2 89 1026.4 3.1 E 3.8 0.0 3.0
12:56 10.9 9.2 89 1026.1 3.8 NE 3.8 0.0 3.0
12:57 10.9 9.2 89 1026.1 3.8 NE 3.8 0.8 3.0
12:58 10.9 9.2 89 1026.0 3.8 NE 3.8 0.8 3.0
12:59 10.9 9.2 89 1025.9 3.8 E 3.8 0.8 3.0
13:00 10.9 9.2 89 1026.2 3.8 E 3.8 0.8 3.0
13:01 10.9 9.2 89 1025.9 3.8 E 3.8 0.8 3.0
13:02 10.9 9.2 89 1026.0 3.8 E 3.8 0.0 3.0
13:03 10.9 9.2 89 1026.0 3.1 E 3.8 0.0 3.0
13:04 11.0 9.3 89 1026.0 3.8 NE 3.8 0.0 3.0
13:06 11.0 9.3 89 1026.0 3.8 NE 3.8 0.0 3.0
13:07 11.0 9.3 89 1026.1 2.2 N 3.8 0.0 3.0
13:08 11.0 9.3 89 1025.9 2.2 NE 3.8 0.0 3.0
13:09 11.0 9.3 89 1026.0 2.2 NE 3.8 0.0 3.0
13:10 11.0 9.3 89 1026.0 2.2 NE 3.8 0.0 3.0
13:11 11.0 9.3 89 1026.0 3.1 NE 3.8 0.0 3.0
13:12 11.0 9.3 89 1025.9 3.1 NE 3.8 0.0 3.0
13:13 11.0 9.3 89 1026.0 2.2 E 3.8 0.0 3.0
13:14 11.0 9.3 89 1026.1 2.2 E 3.8 0.0 3.0
13:15 11.0 9.3 89 1026.1 2.2 E 3.8 0.0 3.0
13:16 11.0 9.3 89 1025.9 1.6 NE 3.8 0.0 3.0
13:17 11.0 9.3 89 1026.0 2.2 NE 3.1 0.0 3.0
13:18 11.0 9.3 89 1026.0 2.2 N 3.1 0.0 3.0
13:19 11.0 9.3 89 1026.1 2.2 NE 3.1 0.0 3.0
13:20 11.0 9.3 89 1026.0 2.2 E 3.1 0.0 3.0
13:21 11.0 9.3 89 1026.0 2.2 NE 3.1 0.0 3.0
13:22 11.0 9.3 89 1026.1 3.8 NE 3.8 0.0 3.0
13:24 11.0 9.3 89 1025.9 2.2 NE 3.8 0.0 3.0
13:25 11.0 9.3 89 1025.9 2.2 NE 3.8 0.0 3.0
13:26 11.0 9.3 89 1025.9 1.6 NE 3.8 0.0 3.0
13:27 11.0 9.3 89 1025.9 1.6 NE 3.8 0.0 3.0
13:28 11.0 9.3 89 1025.8 1.6 E 3.8 0.0 3.0
13:29 11.0 9.3 89 1025.8 1.6 E 3.8 0.0 3.0
13:30 11.0 9.3 89 1025.8 1.6 E 3.8 0.0 3.0
13:31 11.0 9.3 89 1025.7 1.6 E 3.8 0.0 3.0
13:32 11.0 9.3 89 1025.7 3.1 NNE 3.1 0.0 3.0
13:33 11.0 9.3 89 1026.0 2.2 E 3.1 0.0 3.0
13:34 11.0 9.3 89 1026.1 2.2 E 3.1 0.0 3.0
13:35 11.0 9.3 89 1025.8 2.2 E 3.1 0.0 3.0
13:36 11.0 9.3 89 1025.9 1.6 NE 3.1 0.0 3.0
13:37 11.0 9.3 89 1026.0 1.6 NE 3.1 0.0 3.0
13:39 11.0 9.3 89 1025.8 2.2 NE 3.1 0.0 3.0
13:40 11.0 9.3 89 1026.0 2.2 N 3.1 0.0 3.0
13:41 11.0 9.3 89 1025.9 2.2 N 3.1 0.0 3.0
13:42 11.0 9.3 89 1025.9 3.1 NE 3.1 0.0 3.0
13:43 11.0 9.3 89 1025.9 3.1 NE 3.1 0.0 3.0
13:44 11.0 9.3 89 1025.7 3.1 NE 3.1 0.0 3.0
13:45 11.0 9.3 89 1026.0 2.2 NE 3.1 0.0 3.0
13:46 11.0 9.3 89 1026.0 2.2 NE 3.1 0.0 3.0
13:47 11.0 9.3 89 1025.9 3.8 NNW 3.8 0.8 3.1
13:48 11.0 9.3 89 1025.8 3.8 NE 3.8 1.5 3.1
13:49 11.0 9.3 89 1025.7 1.6 NE 3.8 1.5 3.1
13:50 11.0 9.3 89 1025.7 1.6 NE 3.8 1.5 3.1
13:51 11.0 9.3 89 1025.8 1.6 NE 3.8 1.5 3.1
13:52 11.0 9.3 89 1025.8 2.2 NE 3.8 0.8 3.1
13:53 11.0 9.3 89 1025.9 2.2 N 3.8 0.0 3.1
13:55 11.0 9.3 89 1025.9 1.6 NE 3.8 0.0 3.1
13:56 11.0 9.3 89 1025.8 3.1 NE 3.8 0.0 3.1
13:57 11.0 9.3 89 1025.6 3.1 E 3.8 0.0 3.1
13:58 11.0 9.3 89 1025.8 3.1 SE 3.1 0.0 3.1
13:59 11.0 9.3 89 1025.9 3.1 E 3.1 0.0 3.1
14:00 11.0 9.3 89 1025.7 4.5 NE 4.5 0.0 3.1
14:01 11.0 9.3 89 1025.7 4.5 NE 4.5 0.0 3.1
14:02 11.0 9.3 89 1025.9 4.5 NE 4.5 0.0 3.1
14:03 11.0 9.3 89 1025.9 4.5 NE 4.5 0.0 3.1
14:04 11.0 9.3 89 1025.8 4.5 NE 4.5 0.0 3.1
14:05 11.0 9.3 89 1025.7 4.5 NE 4.5 0.0 3.1
14:06 11.0 9.3 89 1025.6 4.5 NE 4.5 0.0 3.1
14:07 10.9 9.2 89 1025.8 2.2 NE 4.5 0.0 3.1
14:08 10.9 9.2 89 1025.8 3.8 NE 4.5 0.0 3.1
14:10 10.9 9.2 89 1025.6 3.1 NE 4.5 0.0 3.1
14:11 10.9 9.2 89 1025.8 2.2 E 4.5 0.0 3.1
14:12 10.9 9.2 89 1025.8 3.1 NE 4.5 0.0 3.1
14:13 10.9 9.2 89 1025.8 2.2 NE 4.5 0.0 3.1
14:14 10.9 9.2 89 1025.8 3.1 W 4.5 0.0 3.1
14:15 10.9 9.2 89 1025.8 3.1 W 4.5 0.0 3.1
14:16 10.9 9.2 89 1025.9 3.1 N 3.8 0.0 3.1
14:17 10.9 9.2 89 1025.8 3.1 E 3.8 0.0 3.1
14:18 10.9 9.2 89 1025.8 3.1 NE 3.8 0.0 3.1
14:19 10.9 9.2 89 1025.9 1.6 NE 3.1 0.0 3.1
14:20 10.9 9.2 89 1026.0 3.1 NE 3.1 0.0 3.1
14:21 10.8 9.1 89 1025.8 3.8 N 3.8 0.0 3.1
14:22 10.8 9.1 89 1025.8 2.2 NE 3.8 0.0 3.1
14:24 10.8 9.1 89 1025.9 2.2 E 3.8 0.0 3.1
14:25 10.8 9.1 89 1025.9 2.2 E 3.8 0.0 3.1
14:26 10.8 9.1 89 1025.7 2.2 N 3.8 0.0 3.1
14:27 10.8 9.1 89 1025.8 1.6 E 3.8 0.0 3.1
14:28 10.8 9.1 89 1025.8 2.2 E 3.8 0.0 3.1
14:29 10.8 9.1 89 1025.8 2.2 E 3.8 0.0 3.1
14:30 10.8 9.1 89 1025.9 3.1 N 3.8 0.0 3.1
14:31 10.8 9.1 89 1025.8 3.8 NW 3.8 0.0 3.1
14:32 10.8 9.1 89 1025.8 2.2 NE 3.8 0.0 3.1
14:33 10.8 9.1 89 1025.7 2.2 N 3.8 0.0 3.1
14:34 10.7 9.0 89 1025.8 2.2 NE 3.8 0.0 3.1
14:35 10.7 9.0 89 1025.8 2.2 NE 3.8 0.0 3.1
14:36 10.7 9.0 89 1025.9 2.2 NE 3.8 0.0 3.1
14:38 10.7 9.0 89 1025.9 2.2 NE 3.8 0.0 3.1
14:39 10.7 9.0 89 1026.0 3.1 E 3.8 0.0 3.1
14:40 10.7 9.0 89 1025.6 3.1 NE 3.8 0.0 3.1
14:41 10.7 9.0 89 1025.7 2.2 WNW 3.1 0.0 3.1
14:42 10.7 9.0 89 1025.8 3.1 N 3.1 0.0 3.1
14:43 10.7 9.0 89 1025.9 3.1 N 3.1 0.0 3.1
14:44 10.7 9.0 89 1025.9 2.2 NE 3.1 0.0 3.1
14:45 10.7 9.0 89 1025.9 3.1 NE 3.1 0.0 3.1
14:46 10.7 8.8 88 1025.9 3.1 NE 3.1 0.0 3.1
14:47 10.7 8.8 88 1025.8 1.6 N 3.1 0.0 3.1
14:48 10.7 8.8 88 1025.8 1.6 NE 3.1 0.0 3.1
14:49 10.7 8.8 88 1026.0 2.2 N 3.1 0.0 3.1
14:50 10.7 8.8 88 1026.0 2.2 N 3.1 0.0 3.1
14:52 10.7 8.8 88 1025.9 2.2 N 3.1 0.0 3.1
14:53 10.7 8.8 88 1025.8 1.6 NE 3.1 0.0 3.1
14:54 10.7 8.8 88 1025.8 2.2 N 3.1 0.0 3.1
14:55 10.7 8.8 88 1025.8 1.6 N 3.1 0.0 3.1
14:56 10.7 8.8 88 1025.8 2.2 N 3.1 0.0 3.1
14:57 10.7 8.8 88 1025.9 2.2 N 3.1 0.0 3.1
14:58 10.7 8.8 88 1025.9 2.2 N 3.1 0.0 3.1
14:59 10.7 8.8 88 1025.8 1.6 N 3.1 0.0 3.2
15:00 10.7 8.8 88 1025.9 1.6 N 3.1 0.8 3.2
15:01 10.7 8.8 88 1025.7 1.6 N 3.1 0.8 3.2
15:02 10.7 8.8 88 1025.9 1.6 N 3.1 0.8 3.2
15:03 10.7 8.8 88 1025.7 1.6 N 3.1 0.8 3.2
15:04 10.7 8.8 88 1025.8 1.6 N 3.1 0.8 3.2
15:05 10.7 8.8 88 1025.8 4.5 E 4.5 0.0 3.3
15:07 10.7 8.8 88 1025.8 2.2 NE 4.5 0.8 3.3
15:08 10.7 8.8 88 1025.6 3.8 E 4.5 0.8 3.3
15:09 10.6 8.7 88 1025.8 3.1 NE 4.5 0.8 3.3
15:10 10.6 8.7 88 1025.7 3.8 NE 4.5 0.8 3.3
15:11 10.6 8.7 88 1025.9 3.1 NE 4.5 0.8 3.3
15:12 10.6 8.7 88 1026.0 3.8 E 4.5 0.8 3.3
15:13 10.6 8.7 88 1025.9 3.1 NE 4.5 0.8 3.3
15:14 10.6 8.7 88 1025.9 3.1 NE 4.5 0.8 3.3
15:15 10.6 8.7 88 1026.0 3.1 N 4.5 0.8 3.3
15:16 10.6 8.7 88 1025.8 2.2 W 3.8 0.0 3.3
15:17 10.6 8.7 88 1025.9 3.1 NNE 3.8 0.0 3.3
15:18 10.6 8.7 88 1025.9 3.1 NNE 3.8 0.0 3.3
15:19 10.6 8.7 88 1026.1 2.2 NE 3.8 0.0 3.3
15:20 10.6 8.7 88 1026.0 2.2 NE 3.8 0.0 3.3
15:21 10.6 8.7 88 1025.9 3.8 N 3.8 0.0 3.3
15:22 10.6 8.7 88 1026.0 3.8 NE 3.8 0.0 3.3
15:23 10.6 8.7 88 1025.9 2.2 E 3.8 0.0 3.3
15:24 10.5 8.6 88 1026.2 3.1 NE 3.8 0.0 3.3
15:25 10.5 8.6 88 1026.0 3.1 N 3.8 0.0 3.3
15:26 10.5 8.6 88 1025.9 2.2 NE 3.8 0.0 3.3
15:28 10.5 8.6 88 1025.7 3.8 N 3.8 0.0 3.3
15:29 10.5 8.6 88 1026.0 2.2 NE 3.8 0.0 3.3
15:30 10.5 8.6 88 1025.8 1.6 N 3.8 0.0 3.3
15:31 10.5 8.6 88 1026.1 3.1 SW 3.8 0.0 3.3
15:32 10.5 8.6 88 1025.9 3.8 NE 3.8 0.0 3.3
15:33 10.5 8.6 88 1025.9 3.8 NE 3.8 0.0 3.3
15:34 10.5 8.6 88 1025.9 2.2 N 3.8 0.0 3.3
15:35 10.5 8.6 88 1026.0 2.2 N 3.8 0.0 3.3
15:36 10.5 8.6 88 1026.0 2.2 N 3.8 0.0 3.3
15:37 10.4 8.5 88 1026.0 3.1 NE 3.8 0.0 3.3
15:38 10.4 8.5 88 1025.9 5.4 N 5.4 0.0 3.3
15:39 10.4 8.5 88 1025.9 3.8 N 5.4 0.0 3.3
15:40 10.4 8.5 88 1025.9 3.1 E 5.4 0.0 3.3
15:41 10.4 8.5 88 1025.9 5.4 E 5.4 0.0 3.3
15:42 10.4 8.5 88 1026.0 2.2 NW 5.4 0.0 3.3
15:43 10.4 8.5 88 1026.0 1.6 N 5.4 0.0 3.3
15:45 10.3 8.4 88 1026.2 3.1 N 5.4 0.0 3.3
15:46 10.3 8.4 88 1025.9 3.1 NE 5.4 0.0 3.3
15:47 10.3 8.4 88 1026.1 4.5 NE 5.4 0.0 3.3
15:48 10.3 8.4 88 1025.9 3.8 N 5.4 0.0 3.3
15:49 10.3 8.4 88 1026.1 3.8 N 5.4 0.0 3.3
15:50 10.3 8.4 88 1025.9 3.1 N 5.4 0.0 3.3
15:51 10.2 8.3 88 1026.0 4.5 NW 4.5 0.0 3.3
15:52 10.2 8.3 88 1026.1 4.5 N 4.5 0.0 3.3
15:53 10.2 8.3 88 1026.0 4.5 N 4.5 0.0 3.3
15:54 10.2 8.3 88 1026.1 4.5 E 4.5 0.0 3.3
15:55 10.2 8.3 88 1026.0 4.5 NE 4.5 0.0 3.3
15:56 10.2 8.3 88 1026.1 3.1 N 4.5 0.0 3.3
15:57 10.2 8.3 88 1026.1 2.2 NE 4.5 0.0 3.3
15:58 10.2 8.3 88 1025.8 3.1 N 4.5 0.0 3.3
15:59 10.1 8.2 88 1026.1 4.5 W 4.5 0.0 3.3
16:00 10.1 8.2 88 1026.1 3.1 NE 4.5 0.0 3.3
16:01 10.1 8.2 88 1026.0 3.1 NE 4.5 0.0 3.3
16:02 10.1 8.2 88 1026.0 3.1 NE 4.5 0.0 3.3
16:04 10.1 8.2 88 1025.9 3.1 NE 4.5 0.0 3.3
16:05 10.1 8.2 88 1026.0 3.1 NE 4.5 0.0 3.3
16:06 10.0 8.1 88 1026.1 3.8 N 4.5 0.0 3.3
16:07 10.0 8.1 88 1026.3 3.8 N 4.5 0.0 3.3
16:08 10.0 8.1 88 1026.0 3.8 NNE 4.5 0.0 3.3
16:09 10.0 8.1 88 1026.1 3.8 NNE 4.5 0.0 3.3
16:10 10.0 8.1 88 1026.1 2.2 NW 3.8 0.0 3.3
16:11 10.0 8.1 88 1026.1 2.2 NW 3.8 0.0 3.3
16:12 10.0 8.1 88 1026.1 2.2 NW 3.8 0.0 3.3
16:13 10.0 8.1 88 1026.0 3.1 NE 3.8 0.8 3.4
16:14 10.0 7.9 87 1026.1 2.2 N 3.8 0.8 3.4
16:15 10.0 7.9 87 1026.0 1.6 NE 3.8 0.8 3.4
16:16 10.0 7.9 87 1026.1 3.1 NE 3.8 0.8 3.4
16:17 10.0 7.9 87 1026.3 3.1 NE 3.8 0.8 3.4
16:18 9.9 7.8 87 1026.1 2.2 NE 3.8 0.0 3.4
16:19 9.9 7.8 87 1026.2 3.1 N 3.8 0.0 3.4
16:21 9.9 7.8 87 1026.3 1.6 N 3.1 0.0 3.4
16:22 9.9 7.8 87 1026.2 2.2 NE 3.1 0.0 3.4
16:23 9.9 7.8 87 1026.2 1.6 NE 3.1 0.0 3.4
16:24 9.9 7.8 87 1026.3 0.7 NE 3.1 0.0 3.4
16:25 9.9 7.8 87 1026.4 1.6 NW 3.1 0.0 3.4
16:26 9.9 7.8 87 1026.2 1.6 NE 3.1 0.0 3.4
16:27 9.9 7.8 87 1026.3 0.7 NE 3.1 0.0 3.4
16:28 9.8 7.7 87 1026.3 0.7 NE 3.1 0.0 3.4
16:29 9.8 7.7 87 1026.1 1.6 NW 3.1 0.0 3.4
16:30 9.8 7.7 87 1026.2 2.2 NNE 3.1 0.0 3.4
16:31 9.8 7.7 87 1026.4 1.6 SE 2.2 0.0 3.4
16:32 9.8 7.7 87 1026.3 3.1 N 3.1 0.0 3.4
16:33 9.8 7.7 87 1026.6 2.2 N 3.1 0.0 3.4
16:34 9.8 7.7 87 1026.2 2.2 NE 3.1 0.0 3.4
16:35 9.8 7.7 87 1026.3 2.2 N 3.1 0.0 3.4
16:37 9.7 7.6 87 1026.4 0.7 NW 3.1 0.0 3.4
16:38 9.7 7.6 87 1026.4 1.6 N 3.1 0.0 3.4
16:39 9.7 7.6 87 1026.2 1.6 NE 3.1 0.0 3.4
16:40 9.7 7.6 87 1026.5 2.2 N 3.1 0.0 3.4
16:41 9.7 7.6 87 1026.4 2.2 N 3.1 0.0 3.4
16:42 9.7 7.6 87 1026.4 2.2 NW 3.1 0.0 3.4
16:43 9.7 7.6 87 1026.3 2.2 N 3.1 0.0 3.4
16:44 9.7 7.6 87 1026.4 2.2 N 3.1 0.0 3.4
16:45 9.7 7.6 87 1026.6 2.2 NE 2.2 0.0 3.4
16:46 9.7 7.6 87 1026.3 3.1 NE 3.1 0.0 3.4
16:47 9.7 7.6 87 1026.2 1.6 NE 3.1 0.0 3.4
16:48 9.7 7.6 87 1026.5 1.6 N 3.1 0.0 3.4
16:49 9.7 7.6 87 1026.2 2.2 NE 3.1 0.0 3.4
16:50 9.7 7.6 87 1026.4 1.6 N 3.1 0.0 3.4
16:51 9.7 7.6 87 1026.4 1.6 NE 3.1 0.0 3.4
16:53 9.7 7.6 87 1026.3 1.6 NE 3.1 0.0 3.4
16:54 9.7 7.6 87 1026.3 2.2 NE 3.1 0.0 3.4
16:55 9.6 7.5 87 1026.2 3.1 E 3.1 0.0 3.4
16:56 9.6 7.5 87 1026.2 1.6 N 3.1 0.0 3.4
16:57 9.6 7.5 87 1026.3 1.6 NE 3.1 0.0 3.4
16:58 9.6 7.5 87 1026.2 1.6 NE 3.1 0.0 3.4
16:59 9.5 7.4 87 1026.4 2.2 NE 3.1 0.0 3.4
17:00 9.5 7.4 87 1025.9 2.2 E 3.1 0.0 3.4
17:01 9.5 7.4 87 1026.3 2.2 E 3.1 0.0 3.4
17:02 9.5 7.4 87 1026.2 2.2 E 3.1 0.0 3.4
17:03 9.5 7.4 87 1026.1 2.2 E 3.1 0.0 3.4
17:04 9.5 7.4 87 1026.1 2.2 E 3.1 0.0 3.4
17:05 9.5 7.4 87 1026.3 2.2 E 3.1 0.0 3.4
17:06 9.5 7.4 87 1026.3 2.2 E 2.2 0.0 3.4
17:07 9.3 7.2 87 1026.2 2.2 NE 2.2 0.0 3.4
17:09 9.3 7.2 87 1026.5 2.2 NE 2.2 0.0 3.4
17:10 9.3 7.2 87 1026.3 1.6 NE 2.2 0.0 3.4
17:11 9.3 7.2 87 1026.2 1.6 NE 2.2 0.0 3.4
17:12 9.2 7.2 87 1026.2 1.6 N 2.2 0.0 3.4
17:13 9.2 7.2 87 1026.3 2.2 NE 2.2 0.0 3.4
17:14 9.2 7.2 87 1026.2 2.2 NE 2.2 0.0 3.4
17:15 9.1 7.1 87 1026.3 1.6 E 2.2 0.0 3.4
17:16 9.1 7.1 87 1026.4 2.2 NE 2.2 0.0 3.4
17:17 9.1 7.1 87 1026.3 2.2 NE 2.2 0.0 3.4
17:18 9.1 6.9 86 1026.4 1.6 NE 2.2 0.0 3.4
17:19 9.0 6.8 86 1026.3 2.2 NE 2.2 0.0 3.4
17:20 9.0 6.8 86 1026.3 2.2 NE 2.2 0.0 3.4
17:21 9.0 6.8 86 1026.4 1.6 NE 2.2 0.0 3.4
17:22 9.0 6.8 86 1026.5 1.6 E 2.2 0.0 3.4
17:23 9.0 6.8 86 1026.3 0.7 NE 2.2 0.0 3.4
17:24 8.9 6.7 86 1026.5 0.7 NE 2.2 0.0 3.4
17:25 8.9 6.7 86 1026.4 0.0 NE 2.2 0.0 3.4
17:26 8.9 6.7 86 1026.7 0.0 NE 2.2 0.0 3.4
17:27 8.8 6.6 86 1026.7 0.7 NE 2.2 0.0 3.4
17:28 8.8 6.6 86 1026.4 0.7 NE 2.2 0.0 3.4
17:29 8.8 6.6 86 1026.7 1.6 N 2.2 0.0 3.4
17:30 8.7 6.5 86 1026.7 0.7 NE 1.6 0.0 3.4
17:32 8.7 6.5 86 1026.4 0.0 NE 1.6 0.0 3.4
17:33 8.6 6.4 86 1026.6 0.7 E 1.6 0.0 3.4
17:34 8.6 6.4 86 1026.6 0.0 E 1.6 0.0 3.4
17:35 8.6 6.4 86 1026.5 0.7 NE 1.6 0.0 3.4
17:36 8.5 6.3 86 1026.7 1.6 NNE 1.6 0.0 3.4
17:37 8.5 6.3 86 1026.5 2.2 NE 2.2 0.0 3.4
17:38 8.5 6.3 86 1026.5 2.2 NE 2.2 0.0 3.4
17:39 8.5 6.3 86 1026.5 1.6 N 2.2 0.0 3.4
17:40 8.5 6.3 86 1026.6 1.6 NE 2.2 0.0 3.4
17:41 8.5 6.3 86 1026.7 1.6 NE 2.2 0.0 3.4
17:42 8.4 6.2 86 1026.6 0.7 NE 2.2 0.0 3.4
17:43 8.4 6.2 86 1026.8 1.6 E 2.2 0.0 3.4
17:44 8.4 6.2 86 1026.6 0.7 NE 2.2 0.0 3.4
17:45 8.4 6.2 86 1026.6 0.7 E 2.2 0.0 3.4
17:47 8.4 6.2 86 1026.8 0.7 NE 2.2 0.0 3.4
17:48 8.4 6.2 86 1026.7 0.7 NE 1.6 0.0 3.4
17:49 8.3 6.1 86 1026.7 0.7 NE 1.6 0.0 3.4
17:50 8.3 6.1 86 1026.8 0.7 NE 1.6 0.0 3.4
17:51 8.3 6.1 86 1026.6 0.7 NE 1.6 0.0 3.4
17:52 8.3 6.1 86 1026.5 0.7 NE 1.6 0.0 3.4
17:53 8.3 6.1 86 1026.8 0.0 NE 1.6 0.0 3.4
17:54 8.3 6.1 86 1026.9 0.0 NE 1.6 0.0 3.4
17:55 8.2 6.0 86 1026.7 0.0 NE 1.6 0.0 3.4
17:56 8.2 6.0 86 1026.6 0.7 NE 0.7 0.0 3.4
17:57 8.2 6.0 86 1026.6 0.7 NE 0.7 0.0 3.4
17:58 8.2 6.0 86 1026.9 1.6 NE 1.6 0.0 3.4
17:59 8.2 6.0 86 1026.7 1.6 NE 1.6 0.0 3.4
18:01 8.1 5.9 86 1026.8 1.6 NE 1.6 0.0 3.4
18:02 8.1 5.9 86 1026.7 1.6 NE 1.6 0.0 3.4
18:03 8.1 5.9 86 1026.9 0.7 NE 1.6 0.0 3.4
18:04 8.1 5.9 86 1026.9 0.0 NE 1.6 0.0 3.4
18:05 8.1 5.9 86 1026.7 0.7 NE 1.6 0.0 3.4
18:06 8.1 5.9 86 1026.7 0.7 NE 1.6 0.0 3.4
18:07 8.1 5.9 86 1026.8 1.6 E 1.6 0.0 3.4
18:08 8.1 5.9 86 1026.8 1.6 E 1.6 0.0 3.4
18:09 8.0 5.6 85 1026.8 1.6 NE 1.6 0.0 3.4
18:10 8.0 5.6 85 1027.0 1.6 NE 1.6 0.0 3.4
18:11 8.0 5.6 85 1026.9 1.6 NE 1.6 0.0 3.4
18:12 8.0 5.6 85 1026.9 1.6 NE 1.6 0.0 3.4
18:13 7.9 5.5 85 1026.9 1.6 NE 1.6 0.0 3.4
18:14 7.9 5.5 85 1027.0 0.7 NE 1.6 0.0 3.4
18:15 7.9 5.5 85 1026.9 1.6 NE 1.6 0.0 3.4
18:17 7.9 5.5 85 1026.8 0.7 NE 1.6 0.0 3.4
18:18 7.9 5.5 85 1026.8 0.7 NE 1.6 0.0 3.4
18:19 7.9 5.5 85 1026.8 0.7 NE 1.6 0.0 3.4
18:20 7.9 5.5 85 1026.8 0.7 NE 1.6 0.0 3.4
18:21 7.8 5.4 85 1027.0 0.7 N 1.6 0.0 3.4
18:22 7.8 5.4 85 1027.2 1.6 NE 1.6 0.0 3.4
18:23 7.8 5.4 85 1027.1 1.6 NE 1.6 0.0 3.4
18:24 7.8 5.4 85 1027.1 1.6 N 1.6 0.0 3.4
18:25 7.8 5.4 85 1027.1 1.6 N 1.6 0.0 3.4
18:26 7.8 5.4 85 1027.1 1.6 N 1.6 0.0 3.4
18:27 7.8 5.4 85 1027.0 1.6 N 1.6 0.0 3.4
18:28 7.8 5.4 85 1027.1 1.6 N 1.6 0.0 3.4
18:29 7.8 5.4 85 1027.0 1.6 N 1.6 0.0 3.4
18:30 7.8 5.4 85 1027.2 1.6 N 1.6 0.0 3.4
18:31 7.8 5.4 85 1027.1 1.6 N 1.6 0.0 3.4
18:33 7.7 5.3 85 1027.0 0.7 NE 1.6 0.0 3.4
18:34 7.7 5.3 85 1027.2 1.6 NE 1.6 0.0 3.4
18:35 7.7 5.3 85 1027.1 1.6 NE 1.6 0.0 3.4
18:36 7.7 5.3 85 1027.2 1.6 N 1.6 0.0 3.4
18:37 7.7 5.3 85 1027.4 1.6 NE 1.6 0.0 3.4
18:38 7.7 5.3 85 1027.2 1.6 NE 1.6 0.0 3.4
18:39 7.7 5.3 85 1027.1 1.6 NE 1.6 0.0 3.4
18:40 7.7 5.3 85 1027.2 0.7 NE 1.6 0.0 3.4
18:41 7.7 5.3 85 1027.2 1.6 NE 1.6 0.0 3.4
18:42 7.7 5.3 85 1027.0 0.7 NE 1.6 0.0 3.4
18:43 7.7 5.3 85 1027.2 0.7 NE 1.6 0.0 3.4
18:44 7.7 5.3 85 1027.2 0.7 NE 1.6 0.0 3.4
18:45 7.7 5.3 85 1027.1 0.7 NE 1.6 0.0 3.4
18:46 7.7 5.3 85 1027.0 0.7 NE 1.6 0.0 3.4
18:47 7.7 5.3 85 1027.3 0.7 NE 1.6 0.0 3.4
18:48 7.7 5.3 85 1027.3 0.7 NE 1.6 0.0 3.4
18:49 7.7 5.3 85 1027.1 0.7 NE 1.6 0.0 3.4
18:50 7.7 5.3 85 1027.4 0.7 NE 1.6 0.0 3.4
18:51 7.7 5.3 85 1027.4 0.7 NE 1.6 0.0 3.4
18:52 7.7 5.3 85 1027.5 0.7 E 0.7 0.0 3.5
18:54 7.7 5.3 85 1027.3 0.7 N 0.7 0.8 3.5
18:55 7.7 5.3 85 1027.4 0.7 NE 0.7 0.8 3.5
18:56 7.7 5.3 85 1027.3 0.7 NE 0.7 0.8 3.5
18:57 7.7 5.3 85 1027.3 0.7 NE 0.7 0.8 3.5
18:58 7.7 5.3 85 1027.3 0.0 NE 0.7 0.0 3.5
18:59 7.7 5.3 85 1027.3 0.0 NE 0.7 0.0 3.5
19:00 7.7 5.3 85 1027.5 0.7 NE 0.7 0.0 3.5
19:01 7.7 5.3 85 1027.5 0.7 NE 0.7 0.0 3.5
19:02 7.7 5.3 85 1027.4 0.7 NE 0.7 0.0 3.5
19:03 7.7 5.3 85 1027.2 0.7 NE 0.7 0.0 3.5
19:05 7.7 5.3 85 1027.4 0.7 NE 0.7 0.0 3.5
19:06 7.7 5.3 85 1027.3 0.7 NE 0.7 0.0 3.5
19:07 7.7 5.3 85 1027.4 0.0 NE 0.7 0.0 3.5
19:08 7.7 5.3 85 1027.4 0.0 NE 0.7 0.0 3.5
19:10 7.6 5.2 85 1027.3 0.0 NE 0.7 0.0 3.5
19:11 7.6 5.2 85 1027.2 0.0 NE 0.7 0.0 3.5
19:12 7.6 5.2 85 1027.2 0.0 NE 0.7 0.0 3.5
19:13 7.5 5.1 85 1027.6 0.0 E 0.7 0.0 3.5
19:14 7.5 5.1 85 1027.4 0.7 E 0.7 0.0 3.5
19:15 7.5 5.1 85 1027.3 0.7 NE 0.7 0.0 3.5
19:16 7.5 5.1 85 1027.2 0.0 NW 0.7 0.0 3.5
19:17 7.5 5.1 85 1027.3 0.7 SW 0.7 0.0 3.5
19:18 7.5 5.1 85 1027.4 0.7 SW 0.7 0.0 3.5
19:19 7.5 5.1 85 1027.4 0.0 SW 0.7 0.0 3.5
19:20 7.4 5.9 90 1027.5 0.0 E 0.7 0.0 3.5
19:21 7.4 5.9 90 1027.5 0.0 E 0.7 0.0 3.5
19:22 7.4 5.9 90 1027.4 0.7 NE 0.7 0.0 3.5
19:23 7.4 5.9 90 1027.6 0.0 NE 0.7 0.0 3.5
19:24 7.4 5.9 90 1027.3 0.0 NE 0.7 0.0 3.5
19:25 7.4 5.9 90 1027.4 0.7 NE 0.7 0.0 3.5
19:26 7.4 5.9 90 1027.3 0.7 NE 0.7 0.0 3.5
19:27 7.3 5.8 90 1027.2 0.0 NE 0.7 0.0 3.5
19:28 7.3 5.8 90 1027.3 0.0 NE 0.7 0.0 3.5
19:29 7.3 5.8 90 1027.5 0.0 NE 0.7 0.0 3.5
19:30 7.3 5.8 90 1027.6 0.0 E 0.7 0.0 3.5
19:32 7.3 5.8 90 1027.4 0.0 E 0.7 0.0 3.5
19:33 7.3 5.8 90 1027.2 0.0 E 0.7 0.0 3.5
19:34 7.3 5.8 90 1027.3 0.0 E 0.7 0.0 3.5
19:35 7.3 5.8 90 1027.2 0.0 E 0.7 0.0 3.5
19:36 7.3 5.8 90 1027.2 0.0 E 0.7 0.0 3.5
19:37 7.3 5.8 90 1027.0 0.0 E 0.0 0.0 3.5
19:38 7.3 5.8 90 1027.0 0.0 E 0.0 0.0 3.5
19:39 7.3 5.8 90 1027.2 0.0 E 0.0 0.0 3.5
19:40 7.3 5.8 90 1027.3 0.0 E 0.0 0.0 3.5
19:41 7.3 5.8 90 1027.1 0.0 E 0.0 0.0 3.5
19:42 7.3 5.8 90 1027.2 0.0 E 0.0 0.0 3.5
19:43 7.3 5.8 90 1027.2 0.0 E 0.0 0.0 3.5
19:44 7.3 5.8 90 1027.3 0.0 E 0.0 0.0 3.5
19:46 7.3 5.8 90 1027.2 0.0 E 0.0 0.8 3.5
19:47 7.3 5.8 90 1027.4 0.0 E 0.0 0.8 3.5
19:48 7.3 5.8 90 1027.3 0.0 E 0.0 0.8 3.5
19:49 7.2 5.7 90 1027.3 0.0 E 0.0 0.8 3.5
19:50 7.2 5.7 90 1027.2 0.0 E 0.0 0.0 3.5
19:51 7.2 5.7 90 1027.4 0.7 E 0.7 0.0 3.5
19:52 7.2 5.7 90 1027.3 0.7 N 0.7 0.0 3.5
19:53 7.2 5.7 90 1027.4 1.6 E 1.6 0.0 3.5
19:54 7.2 5.7 90 1027.1 0.0 E 1.6 0.0 3.5
19:55 7.2 5.7 90 1027.2 0.0 E 1.6 0.0 3.5
19:56 7.1 5.6 90 1027.1 0.0 E 1.6 0.0 3.5
19:57 7.1 5.6 90 1027.2 0.0 E 1.6 0.0 3.5
19:58 7.1 5.6 90 1027.1 0.0 E 1.6 0.0 3.5
19:59 7.0 5.5 90 1027.2 0.7 E 1.6 0.0 3.5
20:01 6.9 5.4 90 1027.1 0.0 E 1.6 0.0 3.5
20:02 6.9 5.4 90 1027.2 0.0 E 1.6 0.0 3.5
20:03 6.9 5.4 90 1027.1 0.0 E 0.7 0.0 3.5
20:04 6.9 5.4 90 1027.2 0.0 E 0.7 0.0 3.5
20:05 6.9 5.4 90 1027.2 0.0 E 0.7 0.0 3.5
20:06 6.9 5.4 90 1027.2 0.0 E 0.7 0.0 3.5
20:07 6.9 5.4 90 1027.2 0.0 E 0.7 0.0 3.5
20:08 6.9 5.4 90 1027.0 0.0 E 0.7 0.0 3.5
20:09 6.9 5.4 90 1027.0 0.0 E 0.7 0.0 3.5
20:10 6.9 5.4 90 1027.2 0.0 E 0.0 0.0 3.5
20:11 6.9 5.4 90 1027.1 0.0 E 0.0 0.0 3.5
20:12 6.9 5.4 90 1027.3 0.0 E 0.0 0.0 3.5
20:13 6.9 5.4 90 1027.1 0.0 E 0.0 0.0 3.5
20:15 6.8 5.3 90 1027.3 0.0 E 0.0 0.0 3.5
20:16 6.8 5.3 90 1027.3 0.0 E 0.0 0.0 3.5
20:17 6.8 5.3 90 1027.3 0.0 E 0.0 0.0 3.5
20:18 6.8 5.3 90 1026.9 0.0 E 0.0 0.0 3.5
20:19 6.8 5.3 90 1027.5 0.7 E 0.7 0.0 3.5
20:20 6.8 5.3 90 1027.3 0.0 E 0.7 0.0 3.5
20:21 6.8 5.3 90 1027.2 0.0 E 0.7 0.0 3.5
20:22 6.8 5.3 90 1027.1 0.0 NW 0.7 0.0 3.5
20:23 6.8 5.3 90 1027.2 0.0 SE 0.7 0.0 3.5
20:24 6.8 5.3 90 1027.3 0.0 E 0.7 0.0 3.5
20:25 6.8 5.3 90 1027.4 0.0 E 0.7 0.0 3.5
20:26 6.8 5.3 90 1027.0 0.0 E 0.7 0.0 3.5
20:27 6.7 5.2 90 1027.2 0.0 NE 0.7 0.0 3.5
20:29 6.7 5.2 90 1027.4 0.0 NE 0.7 0.0 3.5
20:30 6.7 5.2 90 1027.2 0.0 NE 0.7 0.0 3.5
20:31 6.7 5.2 90 1027.1 0.0 NE 0.7 0.0 3.5
20:32 6.6 5.1 90 1027.2 0.0 NE 0.7 0.0 3.5
20:33 6.6 5.1 90 1027.1 0.0 NE 0.7 0.0 3.5
20:34 6.6 5.1 90 1027.1 0.0 NE 0.7 0.0 3.5
20:35 6.6 5.1 90 1027.4 0.0 NE 0.7 0.0 3.5
20:36 6.6 5.1 90 1027.2 0.0 NE 0.7 0.0 3.5
20:37 6.6 5.1 90 1027.2 0.7 NE 0.7 0.0 3.5
20:38 6.6 5.1 90 1027.2 0.7 NE 0.7 0.0 3.5
20:39 6.6 5.1 90 1027.2 0.0 NE 0.7 0.0 3.5
20:40 6.6 5.1 90 1027.2 0.0 NE 0.7 0.0 3.5
20:41 6.6 5.1 90 1027.3 0.0 NE 0.7 0.0 3.5
20:43 6.6 5.1 90 1027.3 0.0 NE 0.7 0.0 3.5
20:44 6.5 5.0 90 1027.2 0.0 NE 0.7 0.0 3.5
20:45 6.5 5.0 90 1027.2 0.0 NE 0.7 0.0 3.5
20:46 6.5 5.0 90 1027.3 0.0 NE 0.7 0.0 3.5
20:47 6.5 5.0 90 1027.3 0.0 NE 0.7 0.0 3.5
20:48 6.5 5.0 90 1027.3 0.0 NE 0.0 0.0 3.5
20:49 6.5 5.0 90 1027.2 0.0 NE 0.0 0.0 3.5
20:50 6.5 5.0 90 1027.3 0.0 NE 0.0 0.0 3.5
20:51 6.5 5.0 90 1027.3 0.0 NE 0.0 0.0 3.5
20:52 6.5 5.0 90 1027.3 0.0 NE 0.0 0.0 3.5
20:53 6.5 5.0 90 1027.4 0.0 NE 0.0 0.0 3.5
20:54 6.5 5.0 90 1027.3 0.0 NE 0.0 0.0 3.5
20:55 6.4 4.9 90 1027.2 0.0 NE 0.0 0.0 3.5
20:57 6.4 4.9 90 1027.4 0.0 NE 0.0 0.0 3.5
20:58 6.3 4.8 90 1027.2 0.0 NE 0.0 0.0 3.5
20:59 6.3 4.8 90 1027.3 0.0 NE 0.0 0.0 3.5
21:00 6.3 4.8 90 1027.4 0.0 NE 0.0 0.0 3.5
21:01 6.3 4.8 90 1027.2 0.0 NE 0.0 0.0 3.5
21:02 6.3 4.8 90 1027.2 0.0 NE 0.0 0.0 3.5
21:03 6.3 4.8 90 1027.4 0.0 NE 0.0 0.0 3.5
21:04 6.3 4.8 90 1027.3 0.0 NE 0.0 0.0 3.5
21:05 6.3 4.8 90 1027.4 0.0 NE 0.0 0.0 3.5
21:06 6.3 4.8 90 1027.3 0.0 NE 0.0 0.0 3.5
21:07 6.2 4.7 90 1027.2 0.0 NE 0.0 0.0 3.5
21:08 6.2 4.7 90 1027.4 0.0 NE 0.0 0.0 3.5
21:09 6.2 4.7 90 1027.5 0.0 NE 0.0 0.0 3.5
21:11 6.3 4.8 90 1027.5 0.0 NE 0.0 0.0 3.5
21:12 6.3 4.8 90 1027.5 0.0 NE 0.0 0.0 3.5
21:13 6.3 4.8 90 1027.3 0.0 NE 0.0 0.0 3.5
21:14 6.3 4.8 90 1027.5 0.0 NE 0.0 0.0 3.5
21:16 6.3 4.8 90 1027.4 0.0 NE 0.0 0.0 3.5
21:18 6.3 4.8 90 1027.5 0.0 NE 0.0 0.0 3.5
21:19 6.3 4.8 90 1027.5 0.0 NE 0.0 0.0 3.5
21:20 6.2 4.7 90 1027.4 0.0 NE 0.0 0.0 3.5
21:21 6.2 4.7 90 1027.4 0.0 NE 0.0 0.0 3.5
21:22 6.2 4.7 90 1027.5 0.7 E 0.7 0.0 3.5
21:23 6.2 4.7 90 1027.5 0.0 E 0.7 0.0 3.5
21:24 6.2 4.7 90 1027.5 0.0 E 0.7 0.0 3.5
21:25 6.1 4.6 90 1027.5 0.0 E 0.7 0.0 3.5
21:26 6.1 4.6 90 1027.5 0.0 E 0.7 0.0 3.5
21:27 6.1 4.6 90 1027.2 0.0 E 0.7 0.0 3.5
21:28 6.0 4.5 90 1027.6 0.0 E 0.7 0.0 3.5
21:29 6.0 4.5 90 1027.6 0.0 E 0.7 0.0 3.5
21:30 6.0 4.5 90 1027.6 0.0 E 0.7 0.0 3.5
21:31 6.0 4.5 90 1027.7 0.0 E 0.7 0.0 3.5
21:32 5.9 4.4 90 1027.3 0.0 E 0.7 0.0 3.5
21:33 5.9 4.4 90 1027.4 0.0 E 0.0 0.0 3.5
21:34 5.9 4.4 90 1027.5 0.0 E 0.0 0.0 3.5
21:35 5.9 4.4 90 1027.5 0.0 E 0.0 0.0 3.5
21:36 5.9 4.4 90 1027.4 0.7 NE 0.7 0.0 3.5
21:37 5.9 4.4 90 1027.6 0.7 NE 0.7 0.0 3.5
21:39 5.9 4.4 90 1027.4 0.0 NE 0.7 0.0 3.5
21:40 5.9 4.4 90 1027.3 0.7 E 0.7 0.0 3.5
21:41 6.0 4.5 90 1027.3 0.0 E 0.7 0.0 3.5
21:42 6.0 4.5 90 1027.5 0.7 NE 0.7 0.0 3.5
21:43 6.0 4.5 90 1027.4 0.7 NE 0.7 0.0 3.5
21:44 6.0 4.5 90 1027.3 0.7 NE 0.7 0.0 3.5
21:45 6.0 4.5 90 1027.5 0.7 W 0.7 0.0 3.5
21:46 6.0 4.5 90 1027.4 0.7 NE 0.7 0.0 3.5
21:47 6.0 4.5 90 1027.4 0.0 NE 0.7 0.0 3.5
21:48 6.0 4.5 90 1027.2 0.7 N 0.7 0.0 3.5
21:49 6.0 4.5 90 1027.4 0.7 NE 0.7 0.0 3.5
21:50 5.9 4.4 90 1027.2 1.6 NE 1.6 0.0 3.5
21:51 5.9 4.4 90 1027.4 1.6 NE 1.6 0.0 3.5
21:52 6.0 4.5 90 1027.2 1.6 E 1.6 0.0 3.5
21:53 6.0 4.5 90 1027.2 0.7 E 1.6 0.0 3.5
21:55 6.0 4.5 90 1027.2 0.0 E 1.6 0.0 3.5
21:56 6.0 4.5 90 1027.4 0.0 E 1.6 0.0 3.5
21:57 6.0 4.5 90 1027.5 0.0 E 1.6 0.0 3.5
21:58 5.9 4.4 90 1027.4 0.0 E 1.6 0.0 3.5
21:59 5.9 4.4 90 1027.2 0.0 E 1.6 0.0 3.5
22:00 5.9 4.4 90 1027.3 0.0 E 1.6 0.0 3.5
22:01 5.9 4.4 90 1027.5 0.0 E 1.6 0.0 3.5
22:02 5.8 4.3 90 1027.3 0.0 E 1.6 0.0 3.5
22:03 5.8 4.3 90 1027.2 0.0 NE 0.7 0.0 3.5
22:04 5.8 4.3 90 1027.3 0.0 NE 0.0 0.0 3.5
22:05 5.8 4.3 90 1027.3 0.0 NE 0.0 0.0 3.5
22:06 5.8 4.3 90 1027.5 0.0 NE 0.0 0.0 3.5
22:07 5.8 4.3 90 1027.2 0.0 NE 0.0 0.0 3.5
22:08 5.8 4.3 90 1027.2 0.0 NE 0.0 0.0 3.5
22:10 5.7 4.2 90 1027.3 0.0 NE 0.0 0.0 3.5
22:11 5.7 4.2 90 1027.5 0.0 NE 0.0 0.0 3.5
22:12 5.7 4.2 90 1027.5 0.0 NE 0.0 0.0 3.5
22:13 5.7 4.2 90 1027.2 0.0 NE 0.0 0.0 3.5
22:14 5.7 4.2 90 1027.5 0.0 NE 0.0 0.0 3.5
22:15 5.7 4.2 90 1027.4 0.0 NE 0.0 0.0 3.5
22:16 5.6 4.1 90 1027.5 0.0 NE 0.0 0.0 3.5
22:17 5.6 4.1 90 1027.2 0.0 NE 0.0 0.0 3.5
22:18 5.6 4.1 90 1027.4 0.0 NE 0.0 0.0 3.5
22:19 5.6 4.1 90 1027.2 0.0 NE 0.0 0.0 3.5
22:20 5.6 4.1 90 1027.3 0.0 NE 0.0 0.0 3.5
22:21 5.6 4.1 90 1027.3 0.0 NE 0.0 0.0 3.5
22:22 5.6 4.1 90 1027.3 0.0 NE 0.0 0.0 3.5
22:23 5.6 4.1 90 1027.4 0.0 NE 0.0 0.0 3.5
22:25 5.5 4.0 90 1027.0 0.0 NE 0.0 0.0 3.5
22:26 5.5 4.0 90 1027.2 0.0 SE 0.0 0.0 3.5
22:27 5.4 3.9 90 1027.2 0.0 SE 0.0 0.0 3.5
22:28 5.4 3.9 90 1027.4 0.0 SE 0.0 0.0 3.5
22:29 5.3 3.8 90 1027.3 0.0 SE 0.0 0.0 3.5
22:30 5.3 3.8 90 1027.3 0.0 E 0.0 0.0 3.5
22:31 5.3 3.8 90 1027.3 0.0 E 0.0 0.0 3.5
22:32 5.3 3.8 90 1027.4 0.0 E 0.0 0.0 3.5
22:33 5.3 3.6 89 1027.4 0.0 E 0.0 0.0 3.5
22:34 5.3 3.6 89 1027.4 0.0 E 0.0 0.0 3.5
22:35 5.3 3.6 89 1027.4 0.0 E 0.0 0.0 3.5
22:36 5.3 3.6 89 1027.3 0.0 E 0.0 0.8 3.6
22:37 5.3 3.6 89 1027.3 0.0 E 0.0 0.8 3.6
22:38 5.3 3.8 90 1027.3 0.0 NE 0.0 0.8 3.6
22:40 5.3 3.8 90 1027.4 0.0 NE 0.0 0.8 3.6
22:41 5.3 3.8 90 1027.4 0.0 E 0.0 0.0 3.6
22:42 5.4 3.9 90 1027.5 0.0 NE 0.0 0.0 3.6
22:43 5.4 3.9 90 1027.5 0.0 NE 0.0 0.0 3.6
22:44 5.4 3.9 90 1027.2 0.7 NE 0.7 0.0 3.6
22:45 5.4 3.9 90 1027.6 0.0 NE 0.7 0.0 3.6
22:46 5.4 3.9 90 1027.6 0.0 NE 0.7 0.0 3.6
22:47 5.5 4.0 90 1027.4 0.0 NE 0.7 0.0 3.6
22:48 5.5 4.0 90 1027.5 0.0 NE 0.7 0.0 3.6
22:49 5.5 4.0 90 1027.5 0.0 NE 0.7 0.0 3.6
22:50 5.5 4.0 90 1027.4 0.0 NE 0.7 0.0 3.6
22:51 5.6 4.1 90 1027.4 0.0 NE 0.7 0.0 3.6
22:52 5.6 4.1 90 1027.3 0.0 NE 0.7 0.0 3.6
22:54 5.5 4.0 90 1027.5 0.0 NE 0.7 0.0 3.6
22:55 5.5 4.0 90 1027.6 0.0 NE 0.0 0.0 3.6
22:56 5.5 4.0 90 1027.3 0.0 NE 0.0 0.0 3.6
22:57 5.5 4.0 90 1027.6 0.0 NE 0.0 0.0 3.6
22:58 5.5 4.0 90 1027.4 0.0 NE 0.0 0.0 3.6
22:59 5.4 3.9 90 1027.6 0.0 NE 0.0 0.0 3.6
23:00 5.4 3.9 90 1027.4 0.0 NE 0.0 0.0 3.6
23:01 5.4 3.9 90 1027.5 0.0 NE 0.0 0.0 3.6
23:02 5.4 3.9 90 1027.5 0.0 NE 0.0 0.0 3.6
23:03 5.4 3.9 90 1027.5 0.0 NE 0.0 0.0 3.6
23:04 5.4 3.9 90 1027.4 0.0 NE 0.0 0.0 3.6
23:05 5.4 3.9 90 1027.4 0.0 NE 0.0 0.0 3.6
23:06 5.4 3.9 90 1027.5 0.0 NE 0.0 0.0 3.6
23:07 5.4 3.9 90 1027.5 0.0 NE 0.0 0.0 3.6
23:09 5.4 3.9 90 1027.4 0.0 NE 0.0 0.0 3.6
23:10 5.4 3.9 90 1027.5 0.0 NE 0.0 0.0 3.6
23:11 5.5 4.0 90 1027.5 0.0 NE 0.0 0.0 3.6
23:12 5.5 4.0 90 1027.5 0.0 NE 0.0 0.0 3.6
23:13 5.5 4.0 90 1027.4 0.0 NE 0.0 0.0 3.6
23:14 5.5 4.0 90 1027.4 0.0 NE 0.0 0.0 3.6
23:15 5.5 4.0 90 1027.4 0.0 NE 0.0 0.0 3.6
23:16 5.5 4.0 90 1027.3 0.0 NE 0.0 0.0 3.6
23:17 5.5 4.0 90 1027.5 0.0 NE 0.0 0.0 3.6
23:18 5.6 4.1 90 1027.4 0.0 NE 0.0 0.0 3.6
23:19 5.6 4.1 90 1027.5 0.0 E 0.0 0.0 3.6
23:20 5.6 4.1 90 1027.4 0.0 E 0.0 0.0 3.6
23:21 5.6 4.1 90 1027.3 0.0 E 0.0 0.0 3.6
23:22 5.6 4.1 90 1027.3 0.0 E 0.0 0.0 3.6
23:23 5.7 4.2 90 1027.4 0.0 E 0.0 0.0 3.6
23:24 5.7 4.2 90 1027.5 0.0 E 0.0 0.0 3.6
23:25 5.7 4.2 90 1027.4 0.0 E 0.0 0.0 3.6
23:26 5.7 4.2 90 1027.6 0.0 E 0.0 0.0 3.6
23:27 5.8 4.3 90 1027.5 0.0 E 0.0 0.0 3.6
23:28 5.8 4.3 90 1027.4 0.0 E 0.0 0.0 3.6
23:30 5.9 4.4 90 1027.3 0.0 E 0.0 0.0 3.6
23:31 5.9 4.4 90 1027.4 0.0 E 0.0 0.0 3.6
23:32 5.9 4.4 90 1027.3 0.0 E 0.0 0.0 3.6
23:33 6.0 4.5 90 1027.6 0.0 E 0.0 0.0 3.6
23:34 6.0 4.5 90 1027.5 0.0 E 0.0 0.0 3.6
23:35 6.0 4.5 90 1027.3 0.0 E 0.0 0.0 3.6
23:36 6.0 4.5 90 1027.2 0.0 E 0.0 0.0 3.6
23:37 6.1 4.6 90 1027.3 0.0 NE 0.0 0.0 3.6
23:38 6.1 4.6 90 1027.5 0.0 NE 0.0 0.0 3.6
23:39 6.1 4.6 90 1027.5 0.0 NE 0.0 0.0 3.6
23:40 6.1 4.6 90 1027.3 0.0 E 0.0 0.0 3.6
23:41 6.1 4.6 90 1027.2 0.7 E 0.7 0.0 3.6
23:42 6.2 4.7 90 1027.3 0.7 E 0.7 0.0 3.6
23:43 6.2 4.7 90 1027.4 0.0 E 0.7 0.0 3.6
23:45 6.2 4.7 90 1027.2 0.0 E 0.7 0.0 3.6
23:46 6.2 4.7 90 1027.2 0.0 E 0.7 0.0 3.6
23:47 6.1 4.6 90 1027.4 0.0 E 0.7 0.0 3.6
23:48 6.1 4.6 90 1027.3 0.0 E 0.7 0.0 3.6
23:49 6.1 4.6 90 1027.4 0.0 E 0.7 0.0 3.6
23:50 6.1 4.6 90 1027.4 0.0 E 0.7 0.0 3.6
23:51 6.1 4.6 90 1027.5 0.0 E 0.7 0.0 3.6
23:52 6.1 4.6 90 1027.5 0.0 E 0.0 0.0 3.6
23:53 6.1 4.6 90 1027.5 0.0 E 0.0 0.0 3.6
23:54 6.1 4.6 90 1027.5 0.0 E 0.0 0.0 3.6
23:55 6.1 4.6 90 1027.3 0.0 E 0.0 0.0 3.6
23:56 6.1 4.6 90 1027.5 0.0 E 0.0 0.0 3.6
23:57 6.1 4.6 90 1027.3 0.0 E 0.0 0.0 3.6
23:59 6.1 4.6 90 1027.5 0.0 E 0.0 0.0 3.6

 

 

UK - WEATHER STATION TOPSITES - UK World Weather Websites

Copyright © Carnkie Weather 2009 - 2020.